Time,TemperatureF,DewpointF,PressureIn,WindDirection,WindDirectionDegrees,WindSpeedMPH,WindSpeedGustMPH,Humidity,HourlyPrecipIn,Conditions,Clouds,dailyrainin,SoftwareType,DateUTC
2013-06-22 00:01:00,76.3,70.1,30.03,SSE,158,3.8,6.3,81,0.00,,,0.00,WUHU216HW,2013-06-22 05:01:00,
2013-06-22 00:02:00,76.3,70.1,30.02,South,180,4.9,6.3,81,0.00,,,0.00,WUHU216HW,2013-06-22 05:02:00,
2013-06-22 00:03:00,76.3,70.1,30.03,SSE,158,4.3,6.3,81,0.00,,,0.00,WUHU216HW,2013-06-22 05:03:00,
2013-06-22 00:06:00,76.1,69.9,30.02,SSE,158,3.4,6.3,81,0.00,,,0.00,WUHU216HW,2013-06-22 05:06:00,
2013-06-22 00:07:00,76.1,69.9,30.02,SSE,158,3.4,6.3,81,0.00,,,0.00,WUHU216HW,2013-06-22 05:07:00,
2013-06-22 00:08:00,76.1,70.3,30.02,SSE,158,4.9,6.3,82,0.00,,,0.00,WUHU216HW,2013-06-22 05:08:00,
2013-06-22 00:09:00,76.0,70.1,30.02,South,180,3.8,6.3,82,0.00,,,0.00,WUHU216HW,2013-06-22 05:09:00,
2013-06-22 00:11:00,76.0,70.1,30.02,SSE,158,4.3,4.9,82,0.00,,,0.00,WUHU216HW,2013-06-22 05:11:00,
2013-06-22 00:12:00,76.0,70.1,30.02,SSE,158,4.3,4.9,82,0.00,,,0.00,WUHU216HW,2013-06-22 05:12:00,
2013-06-22 00:13:00,76.0,70.1,30.02,SSE,158,4.9,4.9,82,0.00,,,0.00,WUHU216HW,2013-06-22 05:13:00,
2013-06-22 00:15:00,76.0,70.1,30.02,SSE,158,4.7,6.3,82,0.00,,,0.00,WUHU216HW,2013-06-22 05:15:00,
2013-06-22 00:17:00,76.0,70.1,30.02,SSE,158,4.7,6.3,82,0.00,,,0.00,WUHU216HW,2013-06-22 05:17:00,
2013-06-22 00:19:00,76.0,70.1,30.02,SSE,158,4.9,6.3,82,0.00,,,0.00,WUHU216HW,2013-06-22 05:19:00,
2013-06-22 00:21:00,76.0,70.1,30.03,SSE,158,4.5,6.3,82,0.00,,,0.00,WUHU216HW,2013-06-22 05:21:00,
2013-06-22 00:22:00,76.0,70.1,30.03,SE,135,3.1,6.3,82,0.00,,,0.00,WUHU216HW,2013-06-22 05:22:00,
2013-06-22 00:23:00,76.0,70.1,30.03,SE,135,3.1,6.3,82,0.00,,,0.00,WUHU216HW,2013-06-22 05:23:00,
2013-06-22 00:24:00,75.8,69.9,30.03,SE,135,3.4,4.9,82,0.00,,,0.00,WUHU216HW,2013-06-22 05:24:00,
2013-06-22 00:27:00,75.8,70.3,30.03,SSE,158,3.8,4.9,83,0.00,,,0.00,WUHU216HW,2013-06-22 05:27:00,
2013-06-22 00:28:00,75.8,70.3,30.03,SE,135,4.7,4.9,83,0.00,,,0.00,WUHU216HW,2013-06-22 05:28:00,
2013-06-22 00:29:00,75.6,70.1,30.03,SE,135,4.0,4.7,83,0.00,,,0.00,WUHU216HW,2013-06-22 05:29:00,
2013-06-22 00:30:00,75.6,70.1,30.03,SSE,158,5.1,5.1,83,0.00,,,0.00,WUHU216HW,2013-06-22 05:30:00,
2013-06-22 00:33:00,75.6,70.1,30.03,SSE,158,5.1,5.1,83,0.00,,,0.00,WUHU216HW,2013-06-22 05:33:00,
2013-06-22 00:35:00,75.6,70.1,30.03,SSE,158,4.7,5.1,83,0.00,,,0.00,WUHU216HW,2013-06-22 05:35:00,
2013-06-22 00:38:00,75.6,70.1,30.03,SE,135,4.3,5.1,83,0.00,,,0.00,WUHU216HW,2013-06-22 05:38:00,
2013-06-22 00:39:00,75.6,70.1,30.03,SSE,158,4.3,5.1,83,0.00,,,0.00,WUHU216HW,2013-06-22 05:39:00,
2013-06-22 00:41:00,75.6,70.1,30.03,SSE,158,4.0,5.6,83,0.00,,,0.00,WUHU216HW,2013-06-22 05:41:00,
2013-06-22 00:42:00,75.6,70.1,30.03,SSE,158,3.6,5.6,83,0.00,,,0.00,WUHU216HW,2013-06-22 05:42:00,
2013-06-22 00:43:00,75.6,70.1,30.03,SSE,158,3.6,5.6,83,0.00,,,0.00,WUHU216HW,2013-06-22 05:43:00,
2013-06-22 00:45:00,75.6,70.1,30.03,SSE,158,4.3,5.6,83,0.00,,,0.00,WUHU216HW,2013-06-22 05:45:00,
2013-06-22 00:47:00,75.6,70.1,30.03,SSE,158,3.4,5.6,83,0.00,,,0.00,WUHU216HW,2013-06-22 05:47:00,
2013-06-22 00:48:00,75.6,70.1,30.03,SSE,158,3.4,5.6,83,0.00,,,0.00,WUHU216HW,2013-06-22 05:48:00,
2013-06-22 00:50:00,75.4,69.9,30.03,SSE,158,2.7,4.5,83,0.00,,,0.00,WUHU216HW,2013-06-22 05:50:00,
2013-06-22 00:51:00,75.4,69.9,30.03,SSE,158,3.1,4.5,83,0.00,,,0.00,WUHU216HW,2013-06-22 05:51:00,
2013-06-22 00:53:00,75.4,69.9,30.03,SSE,158,3.4,4.5,83,0.00,,,0.00,WUHU216HW,2013-06-22 05:53:00,
2013-06-22 00:54:00,75.2,70.1,30.03,SE,135,2.0,4.5,84,0.00,,,0.00,WUHU216HW,2013-06-22 05:54:00,
2013-06-22 00:55:00,75.2,70.1,30.03,SSE,158,2.7,4.5,84,0.00,,,0.00,WUHU216HW,2013-06-22 05:55:00,
2013-06-22 00:57:00,75.2,70.1,30.03,SSE,158,2.0,4.5,84,0.00,,,0.00,WUHU216HW,2013-06-22 05:57:00,
2013-06-22 00:58:00,75.2,70.1,30.03,SSE,158,2.0,4.5,84,0.00,,,0.00,WUHU216HW,2013-06-22 05:58:00,
2013-06-22 00:59:00,75.2,70.1,30.03,SSE,158,1.6,4.0,84,0.00,,,0.00,WUHU216HW,2013-06-22 05:59:00,
2013-06-22 01:00:00,75.2,70.1,30.03,South,180,2.5,4.0,84,0.00,,,0.00,WUHU216HW,2013-06-22 06:00:00,
2013-06-22 01:02:00,75.2,70.1,30.03,SSE,158,2.5,4.0,84,0.00,,,0.00,WUHU216HW,2013-06-22 06:02:00,
2013-06-22 01:03:00,75.2,70.1,30.03,SSE,158,2.5,4.0,84,0.00,,,0.00,WUHU216HW,2013-06-22 06:03:00,
2013-06-22 01:04:00,75.2,70.1,30.03,South,180,2.7,4.0,84,0.00,,,0.00,WUHU216HW,2013-06-22 06:04:00,
2013-06-22 01:06:00,75.2,70.1,30.03,South,180,3.6,3.6,84,0.00,,,0.00,WUHU216HW,2013-06-22 06:06:00,
2013-06-22 01:08:00,75.2,70.1,30.03,SSE,158,2.9,3.6,84,0.00,,,0.00,WUHU216HW,2013-06-22 06:08:00,
2013-06-22 01:09:00,75.2,70.1,30.04,SSE,158,4.0,4.0,84,0.00,,,0.00,WUHU216HW,2013-06-22 06:09:00,
2013-06-22 01:10:00,75.2,69.8,30.03,SE,135,4.5,4.5,83,0.00,,,0.00,WUHU216HW,2013-06-22 06:10:00,
2013-06-22 01:13:00,75.4,69.9,30.03,SSE,158,2.5,4.5,83,0.00,,,0.00,WUHU216HW,2013-06-22 06:13:00,
2013-06-22 01:14:00,75.2,69.8,30.03,SSE,158,2.9,4.5,83,0.00,,,0.00,WUHU216HW,2013-06-22 06:14:00,
2013-06-22 01:18:00,75.2,69.8,30.03,SE,135,2.7,4.5,83,0.00,,,0.00,WUHU216HW,2013-06-22 06:18:00,
2013-06-22 01:20:00,75.2,69.8,30.03,SE,135,2.5,3.8,83,0.00,,,0.00,WUHU216HW,2013-06-22 06:20:00,
2013-06-22 01:21:00,75.2,69.8,30.03,SSE,158,3.6,3.8,83,0.00,,,0.00,WUHU216HW,2013-06-22 06:21:00,
2013-06-22 01:23:00,75.2,69.8,30.03,SE,135,3.1,3.8,83,0.00,,,0.00,WUHU216HW,2013-06-22 06:23:00,
2013-06-22 01:24:00,75.2,69.8,30.03,SE,135,3.4,3.8,83,0.00,,,0.00,WUHU216HW,2013-06-22 06:24:00,
2013-06-22 01:26:00,75.2,69.8,30.03,SE,135,3.4,4.5,83,0.00,,,0.00,WUHU216HW,2013-06-22 06:26:00,
2013-06-22 01:27:00,75.2,69.8,30.03,SSE,158,4.7,4.7,83,0.00,,,0.00,WUHU216HW,2013-06-22 06:27:00,
2013-06-22 01:28:00,75.2,69.8,30.03,SE,135,4.0,4.7,83,0.00,,,0.00,WUHU216HW,2013-06-22 06:28:00,
2013-06-22 01:29:00,75.2,69.8,30.03,SE,135,4.0,4.7,83,0.00,,,0.00,WUHU216HW,2013-06-22 06:29:00,
2013-06-22 01:30:00,75.2,69.8,30.03,SSE,158,4.7,4.7,83,0.00,,,0.00,WUHU216HW,2013-06-22 06:30:00,
2013-06-22 01:31:00,75.2,69.8,30.03,SSE,158,4.3,4.7,83,0.00,,,0.00,WUHU216HW,2013-06-22 06:31:00,
2013-06-22 01:33:00,75.4,69.9,30.03,South,180,4.0,4.7,83,0.00,,,0.00,WUHU216HW,2013-06-22 06:33:00,
2013-06-22 01:34:00,75.4,69.9,30.03,South,180,4.0,4.7,83,0.00,,,0.00,WUHU216HW,2013-06-22 06:34:00,
2013-06-22 01:35:00,75.4,69.9,30.03,SSE,158,4.0,4.7,83,0.00,,,0.00,WUHU216HW,2013-06-22 06:35:00,
2013-06-22 01:37:00,75.2,69.8,30.03,SE,135,3.1,4.7,83,0.00,,,0.00,WUHU216HW,2013-06-22 06:37:00,
2013-06-22 01:39:00,75.2,69.8,30.03,SE,135,3.1,4.7,83,0.00,,,0.00,WUHU216HW,2013-06-22 06:39:00,
2013-06-22 01:40:00,75.2,69.8,30.03,SSE,158,3.8,4.5,83,0.00,,,0.00,WUHU216HW,2013-06-22 06:40:00,
2013-06-22 01:41:00,75.2,69.8,30.03,SE,135,2.9,4.5,83,0.00,,,0.00,WUHU216HW,2013-06-22 06:41:00,
2013-06-22 01:43:00,75.2,69.8,30.03,SSE,158,3.4,4.7,83,0.00,,,0.00,WUHU216HW,2013-06-22 06:43:00,
2013-06-22 01:44:00,75.2,69.8,30.03,SSE,158,3.4,4.7,83,0.00,,,0.00,WUHU216HW,2013-06-22 06:44:00,
2013-06-22 01:45:00,75.2,70.1,30.03,SE,135,4.7,4.7,84,0.00,,,0.00,WUHU216HW,2013-06-22 06:45:00,
2013-06-22 01:47:00,75.2,69.8,30.03,SSE,158,4.7,4.7,83,0.00,,,0.00,WUHU216HW,2013-06-22 06:47:00,
2013-06-22 01:48:00,75.2,69.8,30.03,SE,135,3.1,4.7,83,0.00,,,0.00,WUHU216HW,2013-06-22 06:48:00,
2013-06-22 01:49:00,75.2,69.8,30.03,SE,135,3.1,4.7,83,0.00,,,0.00,WUHU216HW,2013-06-22 06:49:00,
2013-06-22 01:51:00,75.1,69.6,30.04,SSE,158,3.6,4.7,83,0.00,,,0.00,WUHU216HW,2013-06-22 06:51:00,
2013-06-22 01:52:00,75.1,69.9,30.04,SSE,158,3.4,4.7,84,0.00,,,0.00,WUHU216HW,2013-06-22 06:52:00,
2013-06-22 01:54:00,75.1,69.9,30.04,SSE,158,2.9,4.7,84,0.00,,,0.00,WUHU216HW,2013-06-22 06:54:00,
2013-06-22 01:55:00,75.1,69.9,30.04,SSE,158,4.5,4.7,84,0.00,,,0.00,WUHU216HW,2013-06-22 06:55:00,
2013-06-22 01:56:00,74.9,69.8,30.04,SE,135,4.3,4.5,84,0.00,,,0.00,WUHU216HW,2013-06-22 06:56:00,
2013-06-22 01:58:00,74.9,69.8,30.04,SE,135,2.5,4.5,84,0.00,,,0.00,WUHU216HW,2013-06-22 06:58:00,
2013-06-22 01:59:00,74.9,69.8,30.04,SE,135,2.5,4.5,84,0.00,,,0.00,WUHU216HW,2013-06-22 06:59:00,
2013-06-22 02:00:00,74.9,69.8,30.04,SE,135,2.0,4.5,84,0.00,,,0.00,WUHU216HW,2013-06-22 07:00:00,
2013-06-22 02:02:00,74.7,69.6,30.04,SSE,158,2.2,4.5,84,0.00,,,0.00,WUHU216HW,2013-06-22 07:02:00,
2013-06-22 02:05:00,74.7,69.6,30.04,SE,135,2.5,4.5,84,0.00,,,0.00,WUHU216HW,2013-06-22 07:05:00,
2013-06-22 02:07:00,74.5,69.8,30.04,SE,135,4.3,4.3,85,0.00,,,0.00,WUHU216HW,2013-06-22 07:07:00,
2013-06-22 02:09:00,74.5,69.8,30.04,ESE,113,3.8,4.3,85,0.00,,,0.00,WUHU216HW,2013-06-22 07:09:00,
2013-06-22 02:10:00,74.5,69.8,30.04,ESE,113,3.8,4.3,85,0.00,,,0.00,WUHU216HW,2013-06-22 07:10:00,
2013-06-22 02:11:00,74.5,69.8,30.04,ESE,113,2.7,4.3,85,0.00,,,0.00,WUHU216HW,2013-06-22 07:11:00,
2013-06-22 02:13:00,74.5,69.8,30.04,SE,135,3.8,4.3,85,0.00,,,0.00,WUHU216HW,2013-06-22 07:13:00,
2013-06-22 02:14:00,74.5,69.8,30.04,SE,135,4.0,4.3,85,0.00,,,0.00,WUHU216HW,2013-06-22 07:14:00,
2013-06-22 02:15:00,74.5,69.8,30.04,SE,135,4.0,4.3,85,0.00,,,0.00,WUHU216HW,2013-06-22 07:15:00,
2013-06-22 02:17:00,74.5,69.8,30.04,SE,135,2.5,4.0,85,0.00,,,0.00,WUHU216HW,2013-06-22 07:17:00,
2013-06-22 02:18:00,74.5,69.8,30.04,SE,135,2.0,4.0,85,0.00,,,0.00,WUHU216HW,2013-06-22 07:18:00,
2013-06-22 02:20:00,74.5,69.8,30.04,SE,135,2.2,4.0,85,0.00,,,0.00,WUHU216HW,2013-06-22 07:20:00,
2013-06-22 02:21:00,74.5,69.8,30.04,SSE,158,2.0,4.0,85,0.00,,,0.00,WUHU216HW,2013-06-22 07:21:00,
2013-06-22 02:24:00,74.3,69.6,30.04,SSE,158,2.5,2.9,85,0.00,,,0.00,WUHU216HW,2013-06-22 07:24:00,
2013-06-22 02:25:00,74.3,69.6,30.04,SSE,158,2.5,2.9,85,0.00,,,0.00,WUHU216HW,2013-06-22 07:25:00,
2013-06-22 02:27:00,74.2,69.4,30.04,SSE,158,2.9,3.4,85,0.00,,,0.00,WUHU216HW,2013-06-22 07:27:00,
2013-06-22 02:28:00,74.3,69.6,30.04,SSE,158,2.9,3.4,85,0.00,,,0.00,WUHU216HW,2013-06-22 07:28:00,
2013-06-22 02:30:00,74.3,69.6,30.03,SSE,158,3.4,3.4,85,0.00,,,0.00,WUHU216HW,2013-06-22 07:30:00,
2013-06-22 02:31:00,74.3,69.6,30.03,SE,135,2.5,3.4,85,0.00,,,0.00,WUHU216HW,2013-06-22 07:31:00,
2013-06-22 02:33:00,74.3,69.6,30.03,SE,135,2.5,3.4,85,0.00,,,0.00,WUHU216HW,2013-06-22 07:33:00,
2013-06-22 02:34:00,74.2,69.4,30.03,SSE,158,3.1,3.4,85,0.00,,,0.00,WUHU216HW,2013-06-22 07:34:00,
2013-06-22 02:35:00,74.2,69.4,30.03,SSE,158,3.1,3.4,85,0.00,,,0.00,WUHU216HW,2013-06-22 07:35:00,
2013-06-22 02:37:00,74.2,69.8,30.03,SE,135,2.5,3.4,86,0.00,,,0.00,WUHU216HW,2013-06-22 07:37:00,
2013-06-22 02:39:00,74.2,69.8,30.03,SE,135,1.8,3.4,86,0.00,,,0.00,WUHU216HW,2013-06-22 07:39:00,
2013-06-22 02:40:00,74.2,69.8,30.03,SE,135,1.8,3.4,86,0.00,,,0.00,WUHU216HW,2013-06-22 07:40:00,
2013-06-22 02:41:00,74.2,69.8,30.03,SE,135,4.0,4.0,86,0.00,,,0.00,WUHU216HW,2013-06-22 07:41:00,
2013-06-22 02:45:00,74.2,70.1,30.03,ESE,113,3.4,4.0,87,0.00,,,0.00,WUHU216HW,2013-06-22 07:45:00,
2013-06-22 02:47:00,74.2,69.4,30.03,ESE,113,3.8,4.0,85,0.00,,,0.00,WUHU216HW,2013-06-22 07:47:00,
2013-06-22 02:48:00,74.3,69.6,30.03,SE,135,3.6,4.0,85,0.00,,,0.00,WUHU216HW,2013-06-22 07:48:00,
2013-06-22 02:50:00,74.3,69.6,30.03,SE,135,3.6,4.0,85,0.00,,,0.00,WUHU216HW,2013-06-22 07:50:00,
2013-06-22 02:51:00,74.2,69.4,30.03,SE,135,4.5,4.5,85,0.00,,,0.00,WUHU216HW,2013-06-22 07:51:00,
2013-06-22 02:53:00,74.3,69.6,30.03,SE,135,4.3,4.5,85,0.00,,,0.00,WUHU216HW,2013-06-22 07:53:00,
2013-06-22 02:55:00,74.3,69.6,30.03,ESE,113,2.9,4.5,85,0.00,,,0.00,WUHU216HW,2013-06-22 07:55:00,
2013-06-22 02:56:00,74.3,69.6,30.03,ESE,113,3.1,4.5,85,0.00,,,0.00,WUHU216HW,2013-06-22 07:56:00,
2013-06-22 03:00:00,74.3,69.6,30.03,SE,135,4.0,4.5,85,0.00,,,0.00,WUHU216HW,2013-06-22 08:00:00,
2013-06-22 03:01:00,74.3,69.6,30.03,ESE,113,3.6,4.3,85,0.00,,,0.00,WUHU216HW,2013-06-22 08:01:00,
2013-06-22 03:03:00,74.3,69.6,30.03,SE,135,6.5,6.5,85,0.00,,,0.00,WUHU216HW,2013-06-22 08:03:00,
2013-06-22 03:04:00,74.5,69.8,30.03,SSE,158,5.8,6.5,85,0.00,,,0.00,WUHU216HW,2013-06-22 08:04:00,
2013-06-22 03:05:00,74.5,69.8,30.03,ESE,113,4.3,6.5,85,0.00,,,0.00,WUHU216HW,2013-06-22 08:05:00,
2013-06-22 03:06:00,74.5,69.8,30.03,ESE,113,4.3,6.5,85,0.00,,,0.00,WUHU216HW,2013-06-22 08:06:00,
2013-06-22 03:08:00,74.5,69.8,30.02,SSE,158,5.4,6.5,85,0.00,,,0.00,WUHU216HW,2013-06-22 08:08:00,
2013-06-22 03:11:00,74.5,69.8,30.03,ESE,113,4.3,6.5,85,0.00,,,0.00,WUHU216HW,2013-06-22 08:11:00,
2013-06-22 03:13:00,74.5,69.8,30.02,SE,135,5.4,5.8,85,0.00,,,0.00,WUHU216HW,2013-06-22 08:13:00,
2013-06-22 03:14:00,74.5,69.8,30.03,SSE,158,5.4,5.4,85,0.00,,,0.00,WUHU216HW,2013-06-22 08:14:00,
2013-06-22 03:16:00,74.5,69.8,30.03,SSE,158,5.4,5.4,85,0.00,,,0.00,WUHU216HW,2013-06-22 08:16:00,
2013-06-22 03:17:00,74.5,69.8,30.03,SSE,158,6.3,6.3,85,0.00,,,0.00,WUHU216HW,2013-06-22 08:17:00,
2013-06-22 03:19:00,74.5,69.8,30.03,SE,135,6.0,6.3,85,0.00,,,0.00,WUHU216HW,2013-06-22 08:19:00,
2013-06-22 03:20:00,74.5,69.8,30.03,SE,135,5.6,6.3,85,0.00,,,0.00,WUHU216HW,2013-06-22 08:20:00,
2013-06-22 03:21:00,74.5,69.8,30.03,SE,135,5.6,6.3,85,0.00,,,0.00,WUHU216HW,2013-06-22 08:21:00,
2013-06-22 03:22:00,74.5,69.8,30.03,SSE,158,5.6,6.3,85,0.00,,,0.00,WUHU216HW,2013-06-22 08:22:00,
2013-06-22 03:23:00,74.5,69.8,30.03,SSE,158,7.4,7.4,85,0.00,,,0.00,WUHU216HW,2013-06-22 08:23:00,
2013-06-22 03:26:00,74.5,69.8,30.03,SE,135,4.5,7.4,85,0.00,,,0.00,WUHU216HW,2013-06-22 08:26:00,
2013-06-22 03:27:00,74.5,69.8,30.03,SE,135,6.0,7.4,85,0.00,,,0.00,WUHU216HW,2013-06-22 08:27:00,
2013-06-22 03:30:00,74.5,69.8,30.03,SE,135,5.6,7.6,85,0.00,,,0.00,WUHU216HW,2013-06-22 08:30:00,
2013-06-22 03:31:00,74.5,69.8,30.03,SE,135,5.6,7.6,85,0.00,,,0.00,WUHU216HW,2013-06-22 08:31:00,
2013-06-22 03:33:00,74.5,69.4,30.03,SE,135,7.4,7.6,84,0.00,,,0.00,WUHU216HW,2013-06-22 08:33:00,
2013-06-22 03:34:00,74.5,69.4,30.03,SSE,158,6.7,7.6,84,0.00,,,0.00,WUHU216HW,2013-06-22 08:34:00,
2013-06-22 03:36:00,74.7,69.6,30.03,SE,135,4.0,7.6,84,0.00,,,0.00,WUHU216HW,2013-06-22 08:36:00,
2013-06-22 03:37:00,74.7,69.6,30.02,SSE,158,5.8,7.4,84,0.00,,,0.00,WUHU216HW,2013-06-22 08:37:00,
2013-06-22 03:39:00,74.5,69.4,30.02,SSE,158,6.0,7.4,84,0.00,,,0.00,WUHU216HW,2013-06-22 08:39:00,
2013-06-22 03:41:00,74.5,69.4,30.02,SSE,158,5.4,7.4,84,0.00,,,0.00,WUHU216HW,2013-06-22 08:41:00,
2013-06-22 03:42:00,74.5,69.4,30.02,SE,135,5.6,7.6,84,0.00,,,0.00,WUHU216HW,2013-06-22 08:42:00,
2013-06-22 03:43:00,74.5,69.4,30.02,South,180,5.4,7.6,84,0.00,,,0.00,WUHU216HW,2013-06-22 08:43:00,
2013-06-22 03:44:00,74.5,69.4,30.02,SSE,158,4.3,7.6,84,0.00,,,0.00,WUHU216HW,2013-06-22 08:44:00,
2013-06-22 03:46:00,74.5,69.4,30.02,SSE,158,5.6,7.6,84,0.00,,,0.00,WUHU216HW,2013-06-22 08:46:00,
2013-06-22 03:47:00,74.3,69.6,30.02,SE,135,6.0,7.6,85,0.00,,,0.00,WUHU216HW,2013-06-22 08:47:00,
2013-06-22 03:48:00,74.2,69.4,30.02,SE,135,4.7,7.6,85,0.00,,,0.00,WUHU216HW,2013-06-22 08:48:00,
2013-06-22 03:51:00,74.2,69.4,30.02,South,180,8.3,8.3,85,0.00,,,0.00,WUHU216HW,2013-06-22 08:51:00,
2013-06-22 03:52:00,74.2,69.4,30.02,South,180,8.3,8.3,85,0.00,,,0.00,WUHU216HW,2013-06-22 08:52:00,
2013-06-22 03:53:00,74.2,69.4,30.02,SSE,158,5.4,8.3,85,0.00,,,0.00,WUHU216HW,2013-06-22 08:53:00,
2013-06-22 03:56:00,74.2,69.4,30.02,SE,135,6.0,8.3,85,0.00,,,0.00,WUHU216HW,2013-06-22 08:56:00,
2013-06-22 03:57:00,74.2,69.4,30.02,SE,135,6.0,8.3,85,0.00,,,0.00,WUHU216HW,2013-06-22 08:57:00,
2013-06-22 04:00:00,74.2,69.4,30.02,SSE,158,6.7,8.3,85,0.00,,,0.00,WUHU216HW,2013-06-22 09:00:00,
2013-06-22 04:01:00,74.2,69.0,30.02,SSE,158,8.3,8.3,84,0.00,,,0.00,WUHU216HW,2013-06-22 09:01:00,
2013-06-22 04:02:00,74.2,69.0,30.02,SSE,158,8.3,8.3,84,0.00,,,0.00,WUHU216HW,2013-06-22 09:02:00,
2013-06-22 04:04:00,74.3,69.2,30.02,SSE,158,6.0,8.3,84,0.00,,,0.00,WUHU216HW,2013-06-22 09:04:00,
2013-06-22 04:06:00,74.3,69.2,30.02,SSE,158,6.0,8.3,84,0.00,,,0.00,WUHU216HW,2013-06-22 09:06:00,
2013-06-22 04:07:00,74.3,69.2,30.02,SSE,158,6.0,8.3,84,0.00,,,0.00,WUHU216HW,2013-06-22 09:07:00,
2013-06-22 04:09:00,74.3,69.2,30.02,SE,135,6.5,8.3,84,0.00,,,0.00,WUHU216HW,2013-06-22 09:09:00,
2013-06-22 04:12:00,74.3,69.2,30.02,SSE,158,6.3,8.1,84,0.00,,,0.00,WUHU216HW,2013-06-22 09:12:00,
2013-06-22 04:15:00,74.5,69.4,30.02,SSE,158,6.3,8.3,84,0.00,,,0.00,WUHU216HW,2013-06-22 09:15:00,
2013-06-22 04:16:00,74.5,69.0,30.02,SSE,158,6.9,8.3,83,0.00,,,0.00,WUHU216HW,2013-06-22 09:16:00,
2013-06-22 04:17:00,74.5,69.0,30.02,SSE,158,6.9,8.3,83,0.00,,,0.00,WUHU216HW,2013-06-22 09:17:00,
2013-06-22 04:19:00,74.5,69.0,30.01,SSE,158,7.4,8.3,83,0.00,,,0.00,WUHU216HW,2013-06-22 09:19:00,
2013-06-22 04:22:00,74.5,69.0,30.01,SSE,158,7.4,8.3,83,0.00,,,0.00,WUHU216HW,2013-06-22 09:22:00,
2013-06-22 04:24:00,74.5,69.0,30.01,SSE,158,8.7,9.6,83,0.00,,,0.00,WUHU216HW,2013-06-22 09:24:00,
2013-06-22 04:26:00,74.7,69.2,30.01,South,180,7.6,9.6,83,0.00,,,0.00,WUHU216HW,2013-06-22 09:26:00,
2013-06-22 04:27:00,74.7,69.2,30.01,South,180,7.6,9.6,83,0.00,,,0.00,WUHU216HW,2013-06-22 09:27:00,
2013-06-22 04:28:00,74.7,69.2,30.01,South,180,7.6,9.6,83,0.00,,,0.00,WUHU216HW,2013-06-22 09:28:00,
2013-06-22 04:31:00,74.7,69.0,30.01,SSE,158,7.6,9.6,82,0.00,,,0.00,WUHU216HW,2013-06-22 09:31:00,
2013-06-22 04:32:00,74.7,69.0,30.01,SSE,158,7.6,9.6,82,0.00,,,0.00,WUHU216HW,2013-06-22 09:32:00,
2013-06-22 04:35:00,74.9,69.1,30.01,SSE,158,8.1,9.2,82,0.00,,,0.00,WUHU216HW,2013-06-22 09:35:00,
2013-06-22 04:37:00,74.9,69.1,30.01,SSE,158,4.9,9.2,82,0.00,,,0.00,WUHU216HW,2013-06-22 09:37:00,
2013-06-22 04:39:00,74.9,69.1,30.01,SSE,158,5.4,9.2,82,0.00,,,0.00,WUHU216HW,2013-06-22 09:39:00,
2013-06-22 04:40:00,74.7,69.0,30.01,South,180,10.7,10.7,82,0.00,,,0.00,WUHU216HW,2013-06-22 09:40:00,
2013-06-22 04:42:00,74.7,69.0,30.01,SSE,158,6.5,10.7,82,0.00,,,0.00,WUHU216HW,2013-06-22 09:42:00,
2013-06-22 04:44:00,74.9,69.1,30.01,South,180,6.9,10.7,82,0.00,,,0.00,WUHU216HW,2013-06-22 09:44:00,
2013-06-22 04:46:00,74.9,69.1,30.00,South,180,5.6,10.7,82,0.00,,,0.00,WUHU216HW,2013-06-22 09:46:00,
2013-06-22 04:47:00,74.9,69.1,30.00,South,180,6.0,10.7,82,0.00,,,0.00,WUHU216HW,2013-06-22 09:47:00,
2013-06-22 04:48:00,74.9,69.1,30.00,South,180,6.0,10.7,82,0.00,,,0.00,WUHU216HW,2013-06-22 09:48:00,
2013-06-22 04:50:00,74.9,69.1,30.00,South,180,8.5,9.2,82,0.00,,,0.00,WUHU216HW,2013-06-22 09:50:00,
2013-06-22 04:51:00,74.7,69.0,30.00,South,180,5.4,9.2,82,0.00,,,0.00,WUHU216HW,2013-06-22 09:51:00,
2013-06-22 04:52:00,74.7,69.0,30.00,SSE,158,6.0,9.2,82,0.00,,,0.00,WUHU216HW,2013-06-22 09:52:00,
2013-06-22 04:53:00,74.7,69.0,30.00,South,180,5.4,9.2,82,0.00,,,0.00,WUHU216HW,2013-06-22 09:53:00,
2013-06-22 04:54:00,74.5,68.8,30.00,SSE,158,7.6,9.2,82,0.00,,,0.00,WUHU216HW,2013-06-22 09:54:00,
2013-06-22 04:56:00,74.5,68.8,30.00,SSE,158,6.3,9.2,82,0.00,,,0.00,WUHU216HW,2013-06-22 09:56:00,
2013-06-22 04:57:00,74.5,69.0,30.00,SSW,203,4.0,8.5,83,0.00,,,0.00,WUHU216HW,2013-06-22 09:57:00,
2013-06-22 04:58:00,74.5,68.8,30.00,SSE,158,6.3,9.2,82,0.00,,,0.00,WUHU216HW,2013-06-22 09:58:00,
2013-06-22 05:00:00,74.3,68.9,30.01,South,180,5.6,7.6,83,0.00,,,0.00,WUHU216HW,2013-06-22 10:00:00,
2013-06-22 05:02:00,74.3,68.9,30.00,South,180,5.4,7.6,83,0.00,,,0.00,WUHU216HW,2013-06-22 10:02:00,
2013-06-22 05:03:00,74.3,68.9,30.00,South,180,5.4,7.6,83,0.00,,,0.00,WUHU216HW,2013-06-22 10:03:00,
2013-06-22 05:05:00,74.5,68.8,30.00,South,180,2.9,8.1,82,0.00,,,0.00,WUHU216HW,2013-06-22 10:05:00,
2013-06-22 05:06:00,74.5,68.8,30.00,South,180,8.9,8.9,82,0.00,,,0.00,WUHU216HW,2013-06-22 10:06:00,
2013-06-22 05:08:00,74.5,68.8,30.00,South,180,6.0,8.9,82,0.00,,,0.00,WUHU216HW,2013-06-22 10:08:00,
2013-06-22 05:09:00,74.5,68.8,30.00,SSE,158,8.1,8.9,82,0.00,,,0.00,WUHU216HW,2013-06-22 10:09:00,
2013-06-22 05:12:00,74.5,68.8,30.00,South,180,2.5,8.9,82,0.00,,,0.00,WUHU216HW,2013-06-22 10:12:00,
2013-06-22 05:13:00,74.5,68.8,30.00,South,180,2.5,8.9,82,0.00,,,0.00,WUHU216HW,2013-06-22 10:13:00,
2013-06-22 05:14:00,74.5,68.8,30.00,South,180,4.7,8.9,82,0.00,,,0.00,WUHU216HW,2013-06-22 10:14:00,
2013-06-22 05:15:00,74.5,68.8,30.00,South,180,4.7,8.9,82,0.00,,,0.00,WUHU216HW,2013-06-22 10:15:00,
2013-06-22 05:16:00,74.5,68.8,30.00,South,180,4.7,8.1,82,0.00,,,0.00,WUHU216HW,2013-06-22 10:16:00,
2013-06-22 05:18:00,74.5,68.8,30.00,South,180,3.1,8.1,82,0.00,,,0.00,WUHU216HW,2013-06-22 10:18:00,
2013-06-22 05:19:00,74.5,68.8,30.00,SSE,158,2.5,7.6,82,0.00,,,0.00,WUHU216HW,2013-06-22 10:19:00,
2013-06-22 05:22:00,74.2,68.7,30.00,South,180,3.8,4.7,83,0.00,,,0.00,WUHU216HW,2013-06-22 10:22:00,
2013-06-22 05:23:00,74.2,68.7,30.00,South,180,3.8,4.7,83,0.00,,,0.00,WUHU216HW,2013-06-22 10:23:00,
2013-06-22 05:24:00,74.0,68.5,30.00,South,180,4.0,4.7,83,0.00,,,0.00,WUHU216HW,2013-06-22 10:24:00,
2013-06-22 05:25:00,74.0,68.5,30.00,SSE,158,2.7,4.7,83,0.00,,,0.00,WUHU216HW,2013-06-22 10:25:00,
2013-06-22 05:27:00,74.0,68.5,30.00,SSE,158,4.5,5.6,83,0.00,,,0.00,WUHU216HW,2013-06-22 10:27:00,
2013-06-22 05:28:00,74.0,68.5,30.00,SSE,158,4.5,5.6,83,0.00,,,0.00,WUHU216HW,2013-06-22 10:28:00,
2013-06-22 05:31:00,73.8,68.3,30.00,SSE,158,5.1,5.6,83,0.00,,,0.00,WUHU216HW,2013-06-22 10:31:00,
2013-06-22 05:32:00,73.8,68.3,30.00,SSE,158,5.1,5.6,83,0.00,,,0.00,WUHU216HW,2013-06-22 10:32:00,
2013-06-22 05:33:00,73.8,68.3,30.00,SSE,158,5.1,5.6,83,0.00,,,0.00,WUHU216HW,2013-06-22 10:33:00,
2013-06-22 05:34:00,73.8,68.3,30.00,South,180,6.3,6.3,83,0.00,,,0.00,WUHU216HW,2013-06-22 10:34:00,
2013-06-22 05:35:00,73.8,68.3,30.00,SSE,158,7.2,7.2,83,0.00,,,0.00,WUHU216HW,2013-06-22 10:35:00,
2013-06-22 05:37:00,73.8,68.3,30.00,South,180,6.9,7.2,83,0.00,,,0.00,WUHU216HW,2013-06-22 10:37:00,
2013-06-22 05:38:00,73.8,68.3,30.00,South,180,6.9,7.2,83,0.00,,,0.00,WUHU216HW,2013-06-22 10:38:00,
2013-06-22 05:39:00,73.8,68.3,30.00,South,180,6.9,7.2,83,0.00,,,0.00,WUHU216HW,2013-06-22 10:39:00,
2013-06-22 05:41:00,73.8,68.7,30.00,South,180,5.4,7.2,84,0.00,,,0.00,WUHU216HW,2013-06-22 10:41:00,
2013-06-22 05:43:00,73.8,68.7,30.01,SSE,158,3.4,7.2,84,0.00,,,0.00,WUHU216HW,2013-06-22 10:43:00,
2013-06-22 05:44:00,73.8,68.7,30.01,SSE,158,3.4,7.2,84,0.00,,,0.00,WUHU216HW,2013-06-22 10:44:00,
2013-06-22 05:45:00,73.6,68.5,30.01,South,180,3.8,6.9,84,0.00,,,0.00,WUHU216HW,2013-06-22 10:45:00,
2013-06-22 05:48:00,73.6,68.5,30.01,South,180,6.3,6.9,84,0.00,,,0.00,WUHU216HW,2013-06-22 10:48:00,
2013-06-22 05:49:00,73.6,68.5,30.01,South,180,6.3,6.9,84,0.00,,,0.00,WUHU216HW,2013-06-22 10:49:00,
2013-06-22 05:50:00,73.6,68.5,30.01,SSE,158,4.3,6.3,84,0.00,,,0.00,WUHU216HW,2013-06-22 10:50:00,
2013-06-22 05:53:00,73.4,68.3,30.01,SSE,158,5.1,6.3,84,0.00,,,0.00,WUHU216HW,2013-06-22 10:53:00,
2013-06-22 05:54:00,73.4,68.3,30.01,SSE,158,5.1,6.3,84,0.00,,,0.00,WUHU216HW,2013-06-22 10:54:00,
2013-06-22 05:55:00,73.4,68.3,30.01,SSE,158,3.4,6.3,84,0.00,,,0.00,WUHU216HW,2013-06-22 10:55:00,
2013-06-22 05:56:00,73.4,68.3,30.01,SSE,158,2.5,6.3,84,0.00,,,0.00,WUHU216HW,2013-06-22 10:56:00,
2013-06-22 05:59:00,73.4,68.3,30.01,SSE,158,2.5,5.1,84,0.00,,,0.00,WUHU216HW,2013-06-22 10:59:00,
2013-06-22 06:01:00,73.3,68.5,30.02,South,180,3.4,5.1,85,0.00,,,0.00,WUHU216HW,2013-06-22 11:01:00,
2013-06-22 06:03:00,73.3,68.5,30.01,SSE,158,4.7,4.7,85,0.00,,,0.00,WUHU216HW,2013-06-22 11:03:00,
2013-06-22 06:04:00,73.1,68.3,30.01,South,180,5.4,5.4,85,0.00,,,0.00,WUHU216HW,2013-06-22 11:04:00,
2013-06-22 06:05:00,73.3,68.5,30.01,SSE,158,6.0,6.0,85,0.00,,,0.00,WUHU216HW,2013-06-22 11:05:00,
2013-06-22 06:08:00,73.1,68.3,30.01,SSE,158,4.0,6.0,85,0.00,,,0.00,WUHU216HW,2013-06-22 11:08:00,
2013-06-22 06:09:00,73.1,68.3,30.01,SSE,158,3.4,6.0,85,0.00,,,0.00,WUHU216HW,2013-06-22 11:09:00,
2013-06-22 06:12:00,73.1,68.3,30.02,South,180,4.0,6.0,85,0.00,,,0.00,WUHU216HW,2013-06-22 11:12:00,
2013-06-22 06:14:00,73.1,68.3,30.01,South,180,2.5,6.0,85,0.00,,,0.00,WUHU216HW,2013-06-22 11:14:00,
2013-06-22 06:16:00,73.1,68.3,30.01,SSE,158,3.4,4.9,85,0.00,,,0.00,WUHU216HW,2013-06-22 11:16:00,
2013-06-22 06:18:00,73.1,68.3,30.01,SSE,158,1.6,4.9,85,0.00,,,0.00,WUHU216HW,2013-06-22 11:18:00,
2013-06-22 06:19:00,73.1,68.3,30.01,SE,135,1.3,4.9,85,0.00,,,0.00,WUHU216HW,2013-06-22 11:19:00,
2013-06-22 06:20:00,73.1,68.3,30.01,SE,135,1.3,4.9,85,0.00,,,0.00,WUHU216HW,2013-06-22 11:20:00,
2013-06-22 06:22:00,73.1,68.3,30.01,South,180,1.8,3.6,85,0.00,,,0.00,WUHU216HW,2013-06-22 11:22:00,
2013-06-22 06:23:00,73.3,68.5,30.01,South,180,1.8,3.6,85,0.00,,,0.00,WUHU216HW,2013-06-22 11:23:00,
2013-06-22 06:24:00,73.3,68.5,30.01,South,180,4.0,4.0,85,0.00,,,0.00,WUHU216HW,2013-06-22 11:24:00,
2013-06-22 06:25:00,73.3,68.5,30.01,South,180,4.0,4.0,85,0.00,,,0.00,WUHU216HW,2013-06-22 11:25:00,
2013-06-22 06:26:00,73.3,68.5,30.02,SSW,203,3.4,4.0,85,0.00,,,0.00,WUHU216HW,2013-06-22 11:26:00,
2013-06-22 06:27:00,73.4,68.7,30.02,SSW,203,2.7,4.0,85,0.00,,,0.00,WUHU216HW,2013-06-22 11:27:00,
2013-06-22 06:29:00,73.4,68.3,30.01,SSW,203,3.4,4.0,84,0.00,,,0.00,WUHU216HW,2013-06-22 11:29:00,
2013-06-22 06:30:00,73.4,68.3,30.01,SSW,203,3.4,4.0,84,0.00,,,0.00,WUHU216HW,2013-06-22 11:30:00,
2013-06-22 06:32:00,73.6,68.5,30.01,SSW,203,2.2,4.0,84,0.00,,,0.00,WUHU216HW,2013-06-22 11:32:00,
2013-06-22 06:34:00,73.6,68.5,30.01,SSW,203,3.6,4.0,84,0.00,,,0.00,WUHU216HW,2013-06-22 11:34:00,
2013-06-22 06:35:00,73.6,68.5,30.01,SSW,203,3.6,4.0,84,0.00,,,0.00,WUHU216HW,2013-06-22 11:35:00,
2013-06-22 06:36:00,73.8,68.7,30.01,South,180,3.8,4.5,84,0.00,,,0.00,WUHU216HW,2013-06-22 11:36:00,
2013-06-22 06:38:00,73.8,68.3,30.01,SSW,203,4.3,4.5,83,0.00,,,0.00,WUHU216HW,2013-06-22 11:38:00,
2013-06-22 06:40:00,73.8,68.3,30.01,SSW,203,4.7,4.7,83,0.00,,,0.00,WUHU216HW,2013-06-22 11:40:00,
2013-06-22 06:41:00,74.2,68.7,30.01,SSW,203,2.9,5.6,83,0.00,,,0.00,WUHU216HW,2013-06-22 11:41:00,
2013-06-22 06:42:00,74.2,68.7,30.01,South,180,5.4,5.6,83,0.00,,,0.00,WUHU216HW,2013-06-22 11:42:00,
2013-06-22 06:43:00,74.2,68.7,30.01,SSE,158,4.9,5.6,83,0.00,,,0.00,WUHU216HW,2013-06-22 11:43:00,
2013-06-22 06:45:00,74.3,68.6,30.01,SSW,203,6.3,6.3,82,0.00,,,0.00,WUHU216HW,2013-06-22 11:45:00,
2013-06-22 06:48:00,74.7,69.0,30.01,South,180,11.2,11.2,82,0.00,,,0.00,WUHU216HW,2013-06-22 11:48:00,
2013-06-22 06:49:00,74.7,69.0,30.01,SSW,203,3.1,11.2,82,0.00,,,0.00,WUHU216HW,2013-06-22 11:49:00,
2013-06-22 06:50:00,74.7,69.0,30.01,SSW,203,3.1,11.2,82,0.00,,,0.00,WUHU216HW,2013-06-22 11:50:00,
2013-06-22 06:51:00,74.9,68.8,30.01,SSE,158,6.3,11.2,81,0.00,,,0.00,WUHU216HW,2013-06-22 11:51:00,
2013-06-22 06:53:00,74.9,68.8,30.01,SSW,203,4.7,11.2,81,0.00,,,0.00,WUHU216HW,2013-06-22 11:53:00,
2013-06-22 06:55:00,75.2,69.1,30.01,South,180,6.3,11.2,81,0.00,,,0.00,WUHU216HW,2013-06-22 11:55:00,
2013-06-22 06:56:00,75.2,69.1,30.01,SSW,203,4.0,11.2,81,0.00,,,0.00,WUHU216HW,2013-06-22 11:56:00,
2013-06-22 06:57:00,75.2,69.1,30.02,SSE,158,6.9,11.2,81,0.00,,,0.00,WUHU216HW,2013-06-22 11:57:00,
2013-06-22 06:59:00,75.6,69.4,30.01,South,180,5.1,6.9,81,0.00,,,0.00,WUHU216HW,2013-06-22 11:59:00,
2013-06-22 07:00:00,75.6,69.1,30.01,SE,135,4.0,6.9,80,0.00,,,0.00,WUHU216HW,2013-06-22 12:00:00,
2013-06-22 07:02:00,75.8,69.2,30.02,SSE,158,3.4,6.9,80,0.00,,,0.00,WUHU216HW,2013-06-22 12:02:00,
2013-06-22 07:04:00,76.0,69.4,30.01,South,180,5.1,6.9,80,0.00,,,0.00,WUHU216HW,2013-06-22 12:04:00,
2013-06-22 07:05:00,76.0,69.4,30.01,South,180,5.1,6.9,80,0.00,,,0.00,WUHU216HW,2013-06-22 12:05:00,
2013-06-22 07:06:00,76.0,69.0,30.02,South,180,5.4,6.9,79,0.00,,,0.00,WUHU216HW,2013-06-22 12:06:00,
2013-06-22 07:07:00,76.1,69.2,30.01,SSE,158,6.0,6.7,79,0.00,,,0.00,WUHU216HW,2013-06-22 12:07:00,
2013-06-22 07:09:00,76.3,69.4,30.02,South,180,5.4,6.0,79,0.00,,,0.00,WUHU216HW,2013-06-22 12:09:00,
2013-06-22 07:11:00,76.3,69.4,30.02,SSE,158,6.7,6.7,79,0.00,,,0.00,WUHU216HW,2013-06-22 12:11:00,
2013-06-22 07:12:00,76.5,69.1,30.02,South,180,5.1,6.7,78,0.00,,,0.00,WUHU216HW,2013-06-22 12:12:00,
2013-06-22 07:13:00,76.5,69.5,30.02,SSE,158,3.6,6.7,79,0.00,,,0.00,WUHU216HW,2013-06-22 12:13:00,
2013-06-22 07:16:00,76.7,69.7,30.02,South,180,7.4,7.4,79,0.00,,,0.00,WUHU216HW,2013-06-22 12:16:00,
2013-06-22 07:17:00,76.7,69.3,30.02,SSE,158,4.3,7.4,78,0.00,,,0.00,WUHU216HW,2013-06-22 12:17:00,
2013-06-22 07:18:00,76.9,69.5,30.02,SSE,158,5.8,7.4,78,0.00,,,0.00,WUHU216HW,2013-06-22 12:18:00,
2013-06-22 07:20:00,76.9,69.5,30.02,SSW,203,7.6,7.6,78,0.00,,,0.00,WUHU216HW,2013-06-22 12:20:00,
2013-06-22 07:21:00,76.9,69.5,30.02,SSW,203,7.6,7.6,78,0.00,,,0.00,WUHU216HW,2013-06-22 12:21:00,
2013-06-22 07:23:00,77.0,69.7,30.02,SSE,158,7.6,9.2,78,0.00,,,0.00,WUHU216HW,2013-06-22 12:23:00,
2013-06-22 07:25:00,77.0,69.7,30.02,SSE,158,7.6,9.2,78,0.00,,,0.00,WUHU216HW,2013-06-22 12:25:00,
2013-06-22 07:26:00,77.0,69.7,30.02,SSE,158,7.6,9.2,78,0.00,,,0.00,WUHU216HW,2013-06-22 12:26:00,
2013-06-22 07:28:00,77.2,69.9,30.02,SSE,158,4.7,9.2,78,0.00,,,0.00,WUHU216HW,2013-06-22 12:28:00,
2013-06-22 07:31:00,77.2,69.9,30.02,South,180,5.8,9.2,78,0.00,,,0.00,WUHU216HW,2013-06-22 12:31:00,
2013-06-22 07:33:00,77.4,70.0,30.03,SSE,158,6.3,7.6,78,0.00,,,0.00,WUHU216HW,2013-06-22 12:33:00,
2013-06-22 07:36:00,77.4,69.6,30.03,SSE,158,7.2,7.6,77,0.00,,,0.00,WUHU216HW,2013-06-22 12:36:00,
2013-06-22 07:41:00,77.6,70.1,30.03,South,180,5.8,7.2,78,0.00,,,0.00,WUHU216HW,2013-06-22 12:41:00,
2013-06-22 07:42:00,77.6,69.8,30.03,SSE,158,5.6,9.8,77,0.00,,,0.00,WUHU216HW,2013-06-22 12:42:00,
2013-06-22 07:45:00,77.6,69.8,30.03,SSE,158,6.7,9.8,77,0.00,,,0.00,WUHU216HW,2013-06-22 12:45:00,
2013-06-22 07:46:00,77.6,70.1,30.03,South,180,6.7,9.8,78,0.00,,,0.00,WUHU216HW,2013-06-22 12:46:00,
2013-06-22 07:47:00,77.6,69.8,30.03,South,180,7.2,9.8,77,0.00,,,0.00,WUHU216HW,2013-06-22 12:47:00,
2013-06-22 07:49:00,77.8,69.9,30.03,SSE,158,6.0,9.8,77,0.00,,,0.00,WUHU216HW,2013-06-22 12:49:00,
2013-06-22 07:51:00,77.9,70.5,30.04,SE,135,5.1,9.2,78,0.00,,,0.00,WUHU216HW,2013-06-22 12:51:00,
2013-06-22 07:52:00,77.9,70.1,30.04,SSE,158,7.8,9.2,77,0.00,,,0.00,WUHU216HW,2013-06-22 12:52:00,
2013-06-22 07:54:00,78.1,70.3,30.04,SE,135,5.4,7.8,77,0.00,,,0.00,WUHU216HW,2013-06-22 12:54:00,
2013-06-22 07:55:00,78.1,70.3,30.04,SSE,158,4.3,7.8,77,0.00,,,0.00,WUHU216HW,2013-06-22 12:55:00,
2013-06-22 07:57:00,78.1,70.3,30.04,SSE,158,4.3,7.8,77,0.00,,,0.00,WUHU216HW,2013-06-22 12:57:00,
2013-06-22 08:01:00,78.3,70.5,30.04,SSE,158,6.0,7.8,77,0.00,,,0.00,WUHU216HW,2013-06-22 13:01:00,
2013-06-22 08:02:00,78.3,70.5,30.04,SSE,158,6.0,7.8,77,0.00,,,0.00,WUHU216HW,2013-06-22 13:02:00,
2013-06-22 08:04:00,78.5,70.3,30.05,ESE,113,6.3,7.6,76,0.00,,,0.00,WUHU216HW,2013-06-22 13:04:00,
2013-06-22 08:06:00,78.5,70.3,30.05,SE,135,6.9,7.6,76,0.00,,,0.00,WUHU216HW,2013-06-22 13:06:00,
2013-06-22 08:07:00,78.5,70.3,30.05,SE,135,6.9,7.6,76,0.00,,,0.00,WUHU216HW,2013-06-22 13:07:00,
2013-06-22 08:09:00,78.5,69.8,30.05,SE,135,8.1,8.5,75,0.00,,,0.00,WUHU216HW,2013-06-22 13:09:00,
2013-06-22 08:11:00,78.7,70.4,30.05,SSE,158,7.2,9.2,76,0.00,,,0.00,WUHU216HW,2013-06-22 13:11:00,
2013-06-22 08:12:00,78.7,70.4,30.05,South,180,7.4,9.2,76,0.00,,,0.00,WUHU216HW,2013-06-22 13:12:00,
2013-06-22 08:14:00,78.8,70.2,30.05,SE,135,6.5,9.2,75,0.00,,,0.00,WUHU216HW,2013-06-22 13:14:00,
2013-06-22 08:17:00,79.0,70.4,30.05,SE,135,6.5,9.2,75,0.00,,,0.00,WUHU216HW,2013-06-22 13:17:00,
2013-06-22 08:18:00,79.2,70.6,30.05,South,180,6.5,9.2,75,0.00,,,0.00,WUHU216HW,2013-06-22 13:18:00,
2013-06-22 08:22:00,79.6,70.9,30.06,SE,135,7.6,8.3,75,0.00,,,0.00,WUHU216HW,2013-06-22 13:22:00,
2013-06-22 08:23:00,79.6,70.9,30.06,SE,135,6.9,8.3,75,0.00,,,0.00,WUHU216HW,2013-06-22 13:23:00,
2013-06-22 08:25:00,79.6,71.3,30.06,SE,135,4.3,8.3,76,0.00,,,0.00,WUHU216HW,2013-06-22 13:25:00,
2013-06-22 08:26:00,79.6,70.9,30.06,SSE,158,5.8,8.3,75,0.00,,,0.00,WUHU216HW,2013-06-22 13:26:00,
2013-06-22 08:27:00,79.6,70.9,30.06,SSE,158,5.8,8.3,75,0.00,,,0.00,WUHU216HW,2013-06-22 13:27:00,
2013-06-22 08:28:00,79.9,70.9,30.06,South,180,5.4,8.3,74,0.00,,,0.00,WUHU216HW,2013-06-22 13:28:00,
2013-06-22 08:29:00,80.3,71.3,30.06,SSE,158,6.3,8.3,74,0.00,,,0.00,WUHU216HW,2013-06-22 13:29:00,
2013-06-22 08:33:00,80.3,70.5,30.06,South,180,7.8,9.8,72,0.00,,,0.00,WUHU216HW,2013-06-22 13:33:00,
2013-06-22 08:36:00,80.5,71.0,30.06,SE,135,4.3,9.8,73,0.00,,,0.00,WUHU216HW,2013-06-22 13:36:00,
2013-06-22 08:37:00,80.5,71.5,30.06,SSE,158,6.3,9.8,74,0.00,,,0.00,WUHU216HW,2013-06-22 13:37:00,
2013-06-22 08:38:00,80.5,71.5,30.06,SSE,158,6.3,9.8,74,0.00,,,0.00,WUHU216HW,2013-06-22 13:38:00,
2013-06-22 08:39:00,80.5,70.7,30.06,SE,135,8.9,9.8,72,0.00,,,0.00,WUHU216HW,2013-06-22 13:39:00,
2013-06-22 08:43:00,80.6,70.8,30.07,SSE,158,9.8,13.9,72,0.00,,,0.00,WUHU216HW,2013-06-22 13:43:00,
2013-06-22 08:48:00,80.8,71.0,30.07,SSE,158,8.7,13.9,72,0.00,,,0.00,WUHU216HW,2013-06-22 13:48:00,
2013-06-22 08:53:00,81.0,71.9,30.07,SSE,158,6.5,11.9,74,0.00,,,0.00,WUHU216HW,2013-06-22 13:53:00,
2013-06-22 08:56:00,81.4,71.1,30.07,South,180,9.2,9.2,71,0.00,,,0.00,WUHU216HW,2013-06-22 13:56:00,
2013-06-22 08:58:00,81.5,71.3,30.07,SSW,203,7.2,9.2,71,0.00,,,0.00,WUHU216HW,2013-06-22 13:58:00,
2013-06-22 08:59:00,81.7,71.4,30.07,South,180,6.3,9.2,71,0.00,,,0.00,WUHU216HW,2013-06-22 13:59:00,
2013-06-22 09:00:00,81.7,71.8,30.07,SSW,203,8.9,9.2,72,0.00,,,0.00,WUHU216HW,2013-06-22 14:00:00,
2013-06-22 09:03:00,81.7,71.4,30.07,SSE,158,10.5,10.5,71,0.00,,,0.00,WUHU216HW,2013-06-22 14:03:00,
2013-06-22 09:04:00,81.7,71.0,30.07,South,180,10.3,10.5,70,0.00,,,0.00,WUHU216HW,2013-06-22 14:04:00,
2013-06-22 09:06:00,81.7,71.4,30.06,South,180,7.4,10.5,71,0.00,,,0.00,WUHU216HW,2013-06-22 14:06:00,
2013-06-22 09:08:00,81.9,71.6,30.06,South,180,6.5,10.5,71,0.00,,,0.00,WUHU216HW,2013-06-22 14:08:00,
2013-06-22 09:09:00,82.1,72.2,30.07,SSE,158,12.1,12.1,72,0.00,,,0.00,WUHU216HW,2013-06-22 14:09:00,
2013-06-22 09:10:00,81.9,71.2,30.07,SSE,158,11.6,12.1,70,0.00,,,0.00,WUHU216HW,2013-06-22 14:10:00,
2013-06-22 09:12:00,81.7,71.4,30.06,SSE,158,9.4,12.1,71,0.00,,,0.00,WUHU216HW,2013-06-22 14:12:00,
2013-06-22 09:13:00,81.9,71.2,30.06,SSE,158,11.4,12.1,70,0.00,,,0.00,WUHU216HW,2013-06-22 14:13:00,
2013-06-22 09:14:00,82.1,71.3,30.06,SSE,158,10.7,12.1,70,0.00,,,0.00,WUHU216HW,2013-06-22 14:14:00,
2013-06-22 09:16:00,82.1,72.2,30.06,SSE,158,13.4,13.4,72,0.00,,,0.00,WUHU216HW,2013-06-22 14:16:00,
2013-06-22 09:18:00,82.4,72.5,30.06,SSE,158,10.5,13.4,72,0.00,,,0.00,WUHU216HW,2013-06-22 14:18:00,
2013-06-22 09:19:00,82.4,72.5,30.06,SSE,158,10.5,13.4,72,0.00,,,0.00,WUHU216HW,2013-06-22 14:19:00,
2013-06-22 09:22:00,82.6,71.8,30.06,South,180,5.4,13.4,70,0.00,,,0.00,WUHU216HW,2013-06-22 14:22:00,
2013-06-22 09:24:00,82.8,72.0,30.07,South,180,8.3,13.4,70,0.00,,,0.00,WUHU216HW,2013-06-22 14:24:00,
2013-06-22 09:26:00,83.2,72.4,30.07,SW,225,3.6,10.5,70,0.00,,,0.00,WUHU216HW,2013-06-22 14:26:00,
2013-06-22 09:27:00,83.2,72.4,30.07,SSE,158,4.7,10.5,70,0.00,,,0.00,WUHU216HW,2013-06-22 14:27:00,
2013-06-22 09:29:00,83.5,72.3,30.06,South,180,6.9,8.5,69,0.00,,,0.00,WUHU216HW,2013-06-22 14:29:00,
2013-06-22 09:30:00,83.7,72.9,30.06,SSE,158,11.2,11.2,70,0.00,,,0.00,WUHU216HW,2013-06-22 14:30:00,
2013-06-22 09:32:00,83.5,72.3,30.06,SSW,203,6.9,11.2,69,0.00,,,0.00,WUHU216HW,2013-06-22 14:32:00,
2013-06-22 09:34:00,83.5,72.3,30.06,South,180,11.4,11.4,69,0.00,,,0.00,WUHU216HW,2013-06-22 14:34:00,
2013-06-22 09:35:00,83.5,72.3,30.06,SW,225,10.7,11.4,69,0.00,,,0.00,WUHU216HW,2013-06-22 14:35:00,
2013-06-22 09:39:00,83.3,72.1,30.07,South,180,10.3,12.1,69,0.00,,,0.00,WUHU216HW,2013-06-22 14:39:00,
2013-06-22 09:44:00,84.1,71.9,30.06,South,180,10.7,12.1,67,0.00,,,0.00,WUHU216HW,2013-06-22 14:44:00,
2013-06-22 09:49:00,84.1,72.4,30.06,SSE,158,9.8,11.2,68,0.00,,,0.00,WUHU216HW,2013-06-22 14:49:00,
2013-06-22 09:54:00,84.2,72.5,30.07,SSE,158,10.7,12.1,68,0.00,,,0.00,WUHU216HW,2013-06-22 14:54:00,
2013-06-22 09:59:00,83.9,72.2,30.07,South,180,6.7,13.2,68,0.00,,,0.00,WUHU216HW,2013-06-22 14:59:00,
2013-06-22 10:05:00,84.2,72.1,30.06,SSW,203,7.6,13.2,67,0.00,,,0.00,WUHU216HW,2013-06-22 15:05:00,
2013-06-22 10:10:00,84.1,71.5,30.06,SSW,203,12.1,13.4,66,0.00,,,0.00,WUHU216HW,2013-06-22 15:10:00,
2013-06-22 10:15:00,84.1,71.9,30.06,South,180,11.4,15.2,67,0.00,,,0.00,WUHU216HW,2013-06-22 15:15:00,
2013-06-22 10:20:00,84.4,72.3,30.06,SSE,158,10.5,15.2,67,0.00,,,0.00,WUHU216HW,2013-06-22 15:20:00,
2013-06-22 10:25:00,84.6,72.0,30.06,SSE,158,12.1,14.3,66,0.00,,,0.00,WUHU216HW,2013-06-22 15:25:00,
2013-06-22 10:30:00,84.8,72.6,30.06,South,180,9.2,14.3,67,0.00,,,0.00,WUHU216HW,2013-06-22 15:30:00,
2013-06-22 10:31:00,85.1,73.0,30.06,South,180,5.6,14.3,67,0.00,,,0.00,WUHU216HW,2013-06-22 15:31:00,
2013-06-22 10:33:00,85.5,72.8,30.07,South,180,8.7,12.8,66,0.00,,,0.00,WUHU216HW,2013-06-22 15:33:00,
2013-06-22 10:35:00,85.0,72.4,30.06,SSW,203,6.9,14.3,66,0.00,,,0.00,WUHU216HW,2013-06-22 15:35:00,
2013-06-22 10:40:00,85.1,73.0,30.06,South,180,5.6,14.3,67,0.00,,,0.00,WUHU216HW,2013-06-22 15:40:00,
2013-06-22 10:42:00,85.7,73.0,30.07,SSE,158,9.4,12.3,66,0.00,,,0.00,WUHU216HW,2013-06-22 15:42:00,
2013-06-22 10:44:00,85.7,72.5,30.07,SSW,203,11.0,12.3,65,0.00,,,0.00,WUHU216HW,2013-06-22 15:44:00,
2013-06-22 10:45:00,85.7,72.5,30.07,SSW,203,11.0,12.3,65,0.00,,,0.00,WUHU216HW,2013-06-22 15:45:00,
2013-06-22 10:48:00,85.9,73.2,30.07,SSW,203,11.4,12.3,66,0.00,,,0.00,WUHU216HW,2013-06-22 15:48:00,
2013-06-22 10:49:00,85.9,73.2,30.07,South,180,11.4,12.3,66,0.00,,,0.00,WUHU216HW,2013-06-22 15:49:00,
2013-06-22 10:50:00,85.9,73.2,30.07,South,180,11.4,12.3,66,0.00,,,0.00,WUHU216HW,2013-06-22 15:50:00,
2013-06-22 10:52:00,86.0,73.4,30.07,South,180,3.6,12.1,66,0.00,,,0.00,WUHU216HW,2013-06-22 15:52:00,
2013-06-22 10:53:00,86.0,73.8,30.07,SSE,158,8.5,12.1,67,0.00,,,0.00,WUHU216HW,2013-06-22 15:53:00,
2013-06-22 10:55:00,86.0,72.9,30.07,South,180,15.7,15.7,65,0.00,,,0.00,WUHU216HW,2013-06-22 15:55:00,
2013-06-22 10:56:00,86.0,72.9,30.07,South,180,12.8,15.7,65,0.00,,,0.00,WUHU216HW,2013-06-22 15:56:00,
2013-06-22 10:58:00,85.7,73.5,30.07,South,180,7.4,15.7,67,0.00,,,0.00,WUHU216HW,2013-06-22 15:58:00,
2013-06-22 11:00:00,85.7,72.1,30.07,South,180,12.3,15.7,64,0.00,,,0.00,WUHU216HW,2013-06-22 16:00:00,
2013-06-22 11:02:00,85.7,73.0,30.07,South,180,6.7,15.7,66,0.00,,,0.00,WUHU216HW,2013-06-22 16:02:00,
2013-06-22 11:03:00,85.9,72.7,30.07,SSE,158,10.1,15.7,65,0.00,,,0.00,WUHU216HW,2013-06-22 16:03:00,
2013-06-22 11:05:00,85.9,73.2,30.07,South,180,7.6,14.3,66,0.00,,,0.00,WUHU216HW,2013-06-22 16:05:00,
2013-06-22 11:06:00,85.9,73.2,30.07,South,180,7.6,14.3,66,0.00,,,0.00,WUHU216HW,2013-06-22 16:06:00,
2013-06-22 11:07:00,86.0,72.9,30.07,SSW,203,6.9,14.3,65,0.00,,,0.00,WUHU216HW,2013-06-22 16:07:00,
2013-06-22 11:08:00,86.2,72.6,30.07,SSW,203,11.0,14.3,64,0.00,,,0.00,WUHU216HW,2013-06-22 16:08:00,
2013-06-22 11:11:00,86.2,72.2,30.07,South,180,11.2,14.3,63,0.00,,,0.00,WUHU216HW,2013-06-22 16:11:00,
2013-06-22 11:13:00,86.0,72.0,30.07,SSW,203,9.2,13.0,63,0.00,,,0.00,WUHU216HW,2013-06-22 16:13:00,
2013-06-22 11:16:00,86.2,72.2,30.07,South,180,8.9,13.0,63,0.00,,,0.00,WUHU216HW,2013-06-22 16:16:00,
2013-06-22 11:17:00,86.4,72.3,30.07,South,180,8.9,13.0,63,0.00,,,0.00,WUHU216HW,2013-06-22 16:17:00,
2013-06-22 11:19:00,86.6,72.0,30.07,SSW,203,11.9,11.9,62,0.00,,,0.00,WUHU216HW,2013-06-22 16:19:00,
2013-06-22 11:20:00,86.6,72.5,30.07,SSW,203,10.5,11.9,63,0.00,,,0.00,WUHU216HW,2013-06-22 16:20:00,
2013-06-22 11:21:00,86.6,72.5,30.07,SSW,203,10.5,11.9,63,0.00,,,0.00,WUHU216HW,2013-06-22 16:21:00,
2013-06-22 11:24:00,86.4,72.8,30.07,SSW,203,8.5,12.1,64,0.00,,,0.00,WUHU216HW,2013-06-22 16:24:00,
2013-06-22 11:25:00,86.6,72.5,30.07,South,180,8.1,12.1,63,0.00,,,0.00,WUHU216HW,2013-06-22 16:25:00,
2013-06-22 11:26:00,86.6,72.5,30.07,South,180,8.1,12.1,63,0.00,,,0.00,WUHU216HW,2013-06-22 16:26:00,
2013-06-22 11:28:00,86.9,74.3,30.07,SSE,158,8.1,12.1,66,0.00,,,0.00,WUHU216HW,2013-06-22 16:28:00,
2013-06-22 11:29:00,87.1,73.0,30.07,South,180,8.7,12.1,63,0.00,,,0.00,WUHU216HW,2013-06-22 16:29:00,
2013-06-22 11:31:00,87.5,73.4,30.07,South,180,5.6,12.1,63,0.00,,,0.00,WUHU216HW,2013-06-22 16:31:00,
2013-06-22 11:32:00,87.5,73.4,30.07,SSW,203,6.9,8.7,63,0.00,,,0.00,WUHU216HW,2013-06-22 16:32:00,
2013-06-22 11:33:00,87.7,74.0,30.07,SE,135,7.8,8.7,64,0.00,,,0.00,WUHU216HW,2013-06-22 16:33:00,
2013-06-22 11:35:00,87.5,72.9,30.07,South,180,14.8,14.8,62,0.00,,,0.00,WUHU216HW,2013-06-22 16:35:00,
2013-06-22 11:36:00,87.1,72.5,30.07,SSW,203,12.8,14.8,62,0.00,,,0.00,WUHU216HW,2013-06-22 16:36:00,
2013-06-22 11:37:00,87.1,73.9,30.07,SSE,158,9.2,14.8,65,0.00,,,0.00,WUHU216HW,2013-06-22 16:37:00,
2013-06-22 11:41:00,87.3,72.3,30.07,WSW,248,7.8,15.0,61,0.00,,,0.00,WUHU216HW,2013-06-22 16:41:00,
2013-06-22 11:44:00,87.1,72.1,30.07,South,180,12.8,15.0,61,0.00,,,0.00,WUHU216HW,2013-06-22 16:44:00,
2013-06-22 11:45:00,87.1,72.5,30.07,SSW,203,8.1,15.0,62,0.00,,,0.00,WUHU216HW,2013-06-22 16:45:00,
2013-06-22 11:46:00,87.1,72.5,30.07,South,180,6.5,15.0,62,0.00,,,0.00,WUHU216HW,2013-06-22 16:46:00,
2013-06-22 11:47:00,87.5,72.5,30.07,South,180,8.5,15.0,61,0.00,,,0.00,WUHU216HW,2013-06-22 16:47:00,
2013-06-22 11:48:00,87.5,73.4,30.07,SSW,203,7.4,15.0,63,0.00,,,0.00,WUHU216HW,2013-06-22 16:48:00,
2013-06-22 11:52:00,87.5,72.9,30.07,SSE,158,9.2,12.8,62,0.00,,,0.00,WUHU216HW,2013-06-22 16:52:00,
2013-06-22 11:53:00,87.1,73.0,30.07,South,180,11.0,12.8,63,0.00,,,0.00,WUHU216HW,2013-06-22 16:53:00,
2013-06-22 11:55:00,87.3,72.7,30.07,South,180,8.1,11.6,62,0.00,,,0.00,WUHU216HW,2013-06-22 16:55:00,
2013-06-22 11:56:00,87.3,72.7,30.07,South,180,8.5,11.6,62,0.00,,,0.00,WUHU216HW,2013-06-22 16:56:00,
2013-06-22 11:57:00,87.3,72.7,30.07,South,180,8.5,11.6,62,0.00,,,0.00,WUHU216HW,2013-06-22 16:57:00,
2013-06-22 11:58:00,87.3,72.7,30.07,SSE,158,7.8,11.6,62,0.00,,,0.00,WUHU216HW,2013-06-22 16:58:00,
2013-06-22 11:59:00,87.3,72.3,30.07,South,180,11.2,11.6,61,0.00,,,0.00,WUHU216HW,2013-06-22 16:59:00,
2013-06-22 12:01:00,87.1,72.5,30.06,SSW,203,12.1,12.1,62,0.00,,,0.00,WUHU216HW,2013-06-22 17:01:00,
2013-06-22 12:02:00,87.1,72.5,30.06,SSW,203,12.1,12.1,62,0.00,,,0.00,WUHU216HW,2013-06-22 17:02:00,
2013-06-22 12:03:00,87.1,72.5,30.06,SSE,158,8.7,12.1,62,0.00,,,0.00,WUHU216HW,2013-06-22 17:03:00,
2013-06-22 12:04:00,87.1,73.0,30.06,SSE,158,12.8,12.8,63,0.00,,,0.00,WUHU216HW,2013-06-22 17:04:00,
2013-06-22 12:07:00,87.5,72.9,30.07,SSW,203,7.2,12.8,62,0.00,,,0.00,WUHU216HW,2013-06-22 17:07:00,
2013-06-22 12:10:00,87.8,72.4,30.06,SSE,158,9.8,12.8,60,0.00,,,0.00,WUHU216HW,2013-06-22 17:10:00,
2013-06-22 12:12:00,87.8,72.8,30.07,South,180,11.4,12.8,61,0.00,,,0.00,WUHU216HW,2013-06-22 17:12:00,
2013-06-22 12:13:00,87.3,71.8,30.07,South,180,9.8,12.8,60,0.00,,,0.00,WUHU216HW,2013-06-22 17:13:00,
2013-06-22 12:15:00,87.3,72.7,30.07,South,180,10.7,12.8,62,0.00,,,0.00,WUHU216HW,2013-06-22 17:15:00,
2013-06-22 12:17:00,87.5,72.5,30.07,SSW,203,13.4,13.4,61,0.00,,,0.00,WUHU216HW,2013-06-22 17:17:00,
2013-06-22 12:18:00,87.5,72.0,30.07,SSW,203,11.2,13.4,60,0.00,,,0.00,WUHU216HW,2013-06-22 17:18:00,
2013-06-22 12:20:00,87.8,72.4,30.06,SSW,203,8.7,13.4,60,0.00,,,0.00,WUHU216HW,2013-06-22 17:20:00,
2013-06-22 12:21:00,87.8,72.4,30.07,South,180,10.1,13.4,60,0.00,,,0.00,WUHU216HW,2013-06-22 17:21:00,
2013-06-22 12:22:00,87.8,72.4,30.07,South,180,10.1,13.4,60,0.00,,,0.00,WUHU216HW,2013-06-22 17:22:00,
2013-06-22 12:24:00,88.0,72.6,30.06,SSE,158,8.3,13.4,60,0.00,,,0.00,WUHU216HW,2013-06-22 17:24:00,
2013-06-22 12:26:00,88.0,73.5,30.06,SSW,203,13.0,13.0,62,0.00,,,0.00,WUHU216HW,2013-06-22 17:26:00,
2013-06-22 12:27:00,88.0,73.5,30.06,SSW,203,13.0,13.0,62,0.00,,,0.00,WUHU216HW,2013-06-22 17:27:00,
2013-06-22 12:28:00,88.4,73.3,30.06,SSW,203,7.8,13.0,61,0.00,,,0.00,WUHU216HW,2013-06-22 17:28:00,
2013-06-22 12:32:00,88.6,72.5,30.06,South,180,8.1,13.0,59,0.00,,,0.00,WUHU216HW,2013-06-22 17:32:00,
2013-06-22 12:33:00,88.6,73.4,30.07,SW,225,8.1,13.0,61,0.00,,,0.00,WUHU216HW,2013-06-22 17:33:00,
2013-06-22 12:34:00,88.6,73.4,30.07,SW,225,8.1,13.0,61,0.00,,,0.00,WUHU216HW,2013-06-22 17:34:00,
2013-06-22 12:37:00,88.4,73.3,30.07,SSE,158,8.7,12.3,61,0.00,,,0.00,WUHU216HW,2013-06-22 17:37:00,
2013-06-22 12:38:00,88.4,73.8,30.07,South,180,6.7,12.1,62,0.00,,,0.00,WUHU216HW,2013-06-22 17:38:00,
2013-06-22 12:39:00,88.4,72.3,30.07,SSW,203,8.9,12.1,59,0.00,,,0.00,WUHU216HW,2013-06-22 17:39:00,
2013-06-22 12:41:00,88.6,72.5,30.07,SSE,158,8.5,12.1,59,0.00,,,0.00,WUHU216HW,2013-06-22 17:41:00,
2013-06-22 12:42:00,88.4,72.3,30.07,SSE,158,14.5,14.5,59,0.00,,,0.00,WUHU216HW,2013-06-22 17:42:00,
2013-06-22 12:44:00,88.0,73.5,30.07,SSE,158,13.0,14.5,62,0.00,,,0.00,WUHU216HW,2013-06-22 17:44:00,
2013-06-22 12:47:00,88.2,72.7,30.07,South,180,8.7,14.5,60,0.00,,,0.00,WUHU216HW,2013-06-22 17:47:00,
2013-06-22 12:48:00,88.2,72.7,30.07,South,180,14.5,14.5,60,0.00,,,0.00,WUHU216HW,2013-06-22 17:48:00,
2013-06-22 12:49:00,88.2,72.7,30.07,SSE,158,13.2,14.5,60,0.00,,,0.00,WUHU216HW,2013-06-22 17:49:00,
2013-06-22 12:51:00,88.2,73.2,30.07,South,180,11.4,14.5,61,0.00,,,0.00,WUHU216HW,2013-06-22 17:51:00,
2013-06-22 12:52:00,88.2,73.2,30.07,South,180,11.4,14.5,61,0.00,,,0.00,WUHU216HW,2013-06-22 17:52:00,
2013-06-22 12:53:00,88.4,71.7,30.07,SSE,158,7.6,14.5,58,0.00,,,0.00,WUHU216HW,2013-06-22 17:53:00,
2013-06-22 12:55:00,88.7,73.2,30.07,SSW,203,7.2,14.5,60,0.00,,,0.00,WUHU216HW,2013-06-22 17:55:00,
2013-06-22 12:56:00,88.7,72.1,30.07,SSW,203,8.9,14.5,58,0.00,,,0.00,WUHU216HW,2013-06-22 17:56:00,
2013-06-22 12:57:00,88.7,73.2,30.07,South,180,6.7,14.5,60,0.00,,,0.00,WUHU216HW,2013-06-22 17:57:00,
2013-06-22 13:01:00,88.7,73.2,30.07,SSW,203,9.6,12.3,60,0.00,,,0.00,WUHU216HW,2013-06-22 18:01:00,
2013-06-22 13:02:00,88.7,72.1,30.07,SE,135,6.9,12.3,58,0.00,,,0.00,WUHU216HW,2013-06-22 18:02:00,
2013-06-22 13:03:00,88.7,72.1,30.07,SE,135,6.9,12.3,58,0.00,,,0.00,WUHU216HW,2013-06-22 18:03:00,
2013-06-22 13:05:00,88.9,72.3,30.07,SSE,158,10.1,12.3,58,0.00,,,0.00,WUHU216HW,2013-06-22 18:05:00,
2013-06-22 13:07:00,88.9,72.3,30.07,SSW,203,3.6,12.3,58,0.00,,,0.00,WUHU216HW,2013-06-22 18:07:00,
2013-06-22 13:08:00,88.9,72.3,30.07,SSW,203,3.6,12.3,58,0.00,,,0.00,WUHU216HW,2013-06-22 18:08:00,
2013-06-22 13:09:00,89.1,73.0,30.07,SSW,203,7.6,12.3,59,0.00,,,0.00,WUHU216HW,2013-06-22 18:09:00,
2013-06-22 13:10:00,89.3,72.5,30.07,South,180,6.7,11.6,58,0.00,,,0.00,WUHU216HW,2013-06-22 18:10:00,
2013-06-22 13:11:00,89.3,72.5,30.07,SSW,203,9.4,11.6,58,0.00,,,0.00,WUHU216HW,2013-06-22 18:11:00,
2013-06-22 13:13:00,89.3,72.0,30.07,South,180,10.3,10.3,57,0.00,,,0.00,WUHU216HW,2013-06-22 18:13:00,
2013-06-22 13:14:00,88.9,72.3,30.07,SSW,203,8.7,10.3,58,0.00,,,0.00,WUHU216HW,2013-06-22 18:14:00,
2013-06-22 13:15:00,88.9,72.8,30.07,SSW,203,4.9,10.3,59,0.00,,,0.00,WUHU216HW,2013-06-22 18:15:00,
2013-06-22 13:17:00,88.9,72.8,30.07,SW,225,8.5,10.3,59,0.00,,,0.00,WUHU216HW,2013-06-22 18:17:00,
2013-06-22 13:18:00,88.9,72.8,30.07,SW,225,8.5,10.3,59,0.00,,,0.00,WUHU216HW,2013-06-22 18:18:00,
2013-06-22 13:20:00,88.9,71.7,30.07,SSE,158,7.6,10.3,57,0.00,,,0.00,WUHU216HW,2013-06-22 18:20:00,
2013-06-22 13:22:00,88.9,72.3,30.07,SW,225,5.6,10.3,58,0.00,,,0.00,WUHU216HW,2013-06-22 18:22:00,
2013-06-22 13:23:00,88.9,72.3,30.07,SW,225,5.6,10.3,58,0.00,,,0.00,WUHU216HW,2013-06-22 18:23:00,
2013-06-22 13:25:00,89.5,73.8,30.07,SSW,203,5.6,10.1,60,0.00,,,0.00,WUHU216HW,2013-06-22 18:25:00,
2013-06-22 13:27:00,89.6,72.4,30.07,South,180,10.7,10.7,57,0.00,,,0.00,WUHU216HW,2013-06-22 18:27:00,
2013-06-22 13:28:00,89.5,73.3,30.07,SSE,158,9.4,10.7,59,0.00,,,0.00,WUHU216HW,2013-06-22 18:28:00,
2013-06-22 13:30:00,89.3,72.5,30.07,SSW,203,6.3,10.7,58,0.00,,,0.00,WUHU216HW,2013-06-22 18:30:00,
2013-06-22 13:31:00,89.3,73.1,30.07,SSE,158,9.2,10.7,59,0.00,,,0.00,WUHU216HW,2013-06-22 18:31:00,
2013-06-22 13:33:00,88.7,73.2,30.07,SSE,158,11.4,11.4,60,0.00,,,0.00,WUHU216HW,2013-06-22 18:33:00,
2013-06-22 13:36:00,88.2,73.2,30.07,South,180,13.4,13.4,61,0.00,,,0.00,WUHU216HW,2013-06-22 18:36:00,
2013-06-22 13:38:00,88.2,72.2,30.06,SSE,158,7.8,13.4,59,0.00,,,0.00,WUHU216HW,2013-06-22 18:38:00,
2013-06-22 13:40:00,88.6,74.3,30.06,SE,135,8.1,13.4,63,0.00,,,0.00,WUHU216HW,2013-06-22 18:40:00,
2013-06-22 13:41:00,88.7,74.1,30.06,SSE,158,9.8,13.4,62,0.00,,,0.00,WUHU216HW,2013-06-22 18:41:00,
2013-06-22 13:42:00,88.7,74.1,30.06,SSE,158,10.7,13.4,62,0.00,,,0.00,WUHU216HW,2013-06-22 18:42:00,
2013-06-22 13:43:00,88.7,74.1,30.06,SSE,158,10.7,13.4,62,0.00,,,0.00,WUHU216HW,2013-06-22 18:43:00,
2013-06-22 13:44:00,88.7,73.2,30.06,SSE,158,12.1,13.4,60,0.00,,,0.00,WUHU216HW,2013-06-22 18:44:00,
2013-06-22 13:45:00,88.7,73.2,30.06,SSW,203,9.2,13.4,60,0.00,,,0.00,WUHU216HW,2013-06-22 18:45:00,
2013-06-22 13:47:00,88.6,73.0,30.06,South,180,7.2,12.1,60,0.00,,,0.00,WUHU216HW,2013-06-22 18:47:00,
2013-06-22 13:48:00,88.9,73.4,30.06,SW,225,4.7,12.1,60,0.00,,,0.00,WUHU216HW,2013-06-22 18:48:00,
2013-06-22 13:49:00,88.9,73.4,30.06,SW,225,4.7,12.1,60,0.00,,,0.00,WUHU216HW,2013-06-22 18:49:00,
2013-06-22 13:51:00,89.3,74.2,30.06,SSE,158,10.3,12.1,61,0.00,,,0.00,WUHU216HW,2013-06-22 18:51:00,
2013-06-22 13:52:00,89.5,73.3,30.06,SW,225,9.2,12.1,59,0.00,,,0.00,WUHU216HW,2013-06-22 18:52:00,
2013-06-22 13:53:00,89.3,73.1,30.06,SSE,158,12.5,12.5,59,0.00,,,0.00,WUHU216HW,2013-06-22 18:53:00,
2013-06-22 13:54:00,89.3,73.1,30.06,SSE,158,12.5,12.5,59,0.00,,,0.00,WUHU216HW,2013-06-22 18:54:00,
2013-06-22 13:55:00,89.1,73.5,30.06,SE,135,11.6,12.5,60,0.00,,,0.00,WUHU216HW,2013-06-22 18:55:00,
2013-06-22 13:56:00,88.9,73.4,30.06,SE,135,11.6,12.5,60,0.00,,,0.00,WUHU216HW,2013-06-22 18:56:00,
2013-06-22 13:57:00,88.6,73.0,30.06,South,180,8.7,12.5,60,0.00,,,0.00,WUHU216HW,2013-06-22 18:57:00,
2013-06-22 13:59:00,88.7,72.1,30.06,WSW,248,10.1,12.5,58,0.00,,,0.00,WUHU216HW,2013-06-22 18:59:00,
2013-06-22 14:02:00,89.3,73.1,30.06,SSW,203,3.1,12.5,59,0.00,,,0.00,WUHU216HW,2013-06-22 19:02:00,
2013-06-22 14:04:00,89.6,72.9,30.06,SSE,158,6.7,11.6,58,0.00,,,0.00,WUHU216HW,2013-06-22 19:04:00,
2013-06-22 14:05:00,89.6,74.0,30.06,SSE,158,13.4,13.4,60,0.00,,,0.00,WUHU216HW,2013-06-22 19:05:00,
2013-06-22 14:08:00,89.5,73.8,30.06,SSW,203,7.6,13.4,60,0.00,,,0.00,WUHU216HW,2013-06-22 19:08:00,
2013-06-22 14:09:00,89.6,73.4,30.05,SSW,203,7.4,13.4,59,0.00,,,0.00,WUHU216HW,2013-06-22 19:09:00,
2013-06-22 14:10:00,89.6,72.9,30.06,SE,135,12.8,13.4,58,0.00,,,0.00,WUHU216HW,2013-06-22 19:10:00,
2013-06-22 14:12:00,89.1,71.9,30.06,South,180,6.5,13.4,57,0.00,,,0.00,WUHU216HW,2013-06-22 19:12:00,
2013-06-22 14:13:00,89.3,73.6,30.05,South,180,9.8,13.4,60,0.00,,,0.00,WUHU216HW,2013-06-22 19:13:00,
2013-06-22 14:14:00,89.3,73.6,30.05,South,180,9.8,13.4,60,0.00,,,0.00,WUHU216HW,2013-06-22 19:14:00,
2013-06-22 14:18:00,89.3,71.5,30.05,South,180,10.5,12.8,56,0.00,,,0.00,WUHU216HW,2013-06-22 19:18:00,
2013-06-22 14:19:00,89.3,71.5,30.05,South,180,10.5,12.8,56,0.00,,,0.00,WUHU216HW,2013-06-22 19:19:00,
2013-06-22 14:21:00,89.5,72.2,30.05,SW,225,8.5,11.6,57,0.00,,,0.00,WUHU216HW,2013-06-22 19:21:00,
2013-06-22 14:22:00,89.5,72.7,30.05,SSW,203,8.5,11.6,58,0.00,,,0.00,WUHU216HW,2013-06-22 19:22:00,
2013-06-22 14:24:00,89.3,73.1,30.05,SSE,158,9.2,11.6,59,0.00,,,0.00,WUHU216HW,2013-06-22 19:24:00,
2013-06-22 14:25:00,89.1,73.5,30.05,SE,135,8.3,11.0,60,0.00,,,0.00,WUHU216HW,2013-06-22 19:25:00,
2013-06-22 14:28:00,88.9,72.3,30.05,South,180,10.1,13.2,58,0.00,,,0.00,WUHU216HW,2013-06-22 19:28:00,
2013-06-22 14:29:00,88.9,72.3,30.05,South,180,10.1,13.2,58,0.00,,,0.00,WUHU216HW,2013-06-22 19:29:00,
2013-06-22 14:31:00,88.9,73.4,30.05,SSE,158,9.2,13.2,60,0.00,,,0.00,WUHU216HW,2013-06-22 19:31:00,
2013-06-22 14:32:00,88.9,71.7,30.05,SSE,158,8.5,13.2,57,0.00,,,0.00,WUHU216HW,2013-06-22 19:32:00,
2013-06-22 14:34:00,88.9,71.7,30.05,SSE,158,12.3,13.2,57,0.00,,,0.00,WUHU216HW,2013-06-22 19:34:00,
2013-06-22 14:35:00,88.9,71.7,30.05,SSE,158,12.3,13.2,57,0.00,,,0.00,WUHU216HW,2013-06-22 19:35:00,
2013-06-22 14:36:00,88.6,71.9,30.05,SSE,158,12.1,13.2,58,0.00,,,0.00,WUHU216HW,2013-06-22 19:36:00,
2013-06-22 14:38:00,88.7,72.6,30.04,SSW,203,7.4,12.3,59,0.00,,,0.00,WUHU216HW,2013-06-22 19:38:00,
2013-06-22 14:40:00,88.7,73.6,30.04,SSE,158,8.9,12.3,61,0.00,,,0.00,WUHU216HW,2013-06-22 19:40:00,
2013-06-22 14:42:00,89.1,72.5,30.04,South,180,4.7,12.3,58,0.00,,,0.00,WUHU216HW,2013-06-22 19:42:00,
2013-06-22 14:45:00,89.8,71.5,30.04,South,180,10.5,12.1,55,0.00,,,0.00,WUHU216HW,2013-06-22 19:45:00,
2013-06-22 14:46:00,90.0,71.7,30.04,SSW,203,8.5,10.5,55,0.00,,,0.00,WUHU216HW,2013-06-22 19:46:00,
2013-06-22 14:48:00,90.2,72.3,30.04,SSW,203,10.1,10.5,56,0.00,,,0.00,WUHU216HW,2013-06-22 19:48:00,
2013-06-22 14:49:00,90.4,71.9,30.04,South,180,9.2,10.5,55,0.00,,,0.00,WUHU216HW,2013-06-22 19:49:00,
2013-06-22 14:50:00,90.4,71.9,30.04,South,180,9.2,10.5,55,0.00,,,0.00,WUHU216HW,2013-06-22 19:50:00,
2013-06-22 14:51:00,90.4,71.9,30.04,SSE,158,9.6,10.5,55,0.00,,,0.00,WUHU216HW,2013-06-22 19:51:00,
2013-06-22 14:54:00,89.8,72.0,30.04,South,180,3.6,10.7,56,0.00,,,0.00,WUHU216HW,2013-06-22 19:54:00,
2013-06-22 14:55:00,89.8,72.0,30.04,South,180,3.6,10.7,56,0.00,,,0.00,WUHU216HW,2013-06-22 19:55:00,
2013-06-22 14:56:00,89.8,73.6,30.04,SSE,158,8.1,10.7,59,0.00,,,0.00,WUHU216HW,2013-06-22 19:56:00,
2013-06-22 14:58:00,89.3,73.6,30.04,South,180,10.7,10.7,60,0.00,,,0.00,WUHU216HW,2013-06-22 19:58:00,
2013-06-22 15:00:00,89.3,71.5,30.04,SE,135,10.5,10.7,56,0.00,,,0.00,WUHU216HW,2013-06-22 20:00:00,
2013-06-22 15:01:00,88.9,73.4,30.04,SE,135,9.4,10.7,60,0.00,,,0.00,WUHU216HW,2013-06-22 20:01:00,
2013-06-22 15:02:00,88.7,72.6,30.04,SSE,158,10.1,10.7,59,0.00,,,0.00,WUHU216HW,2013-06-22 20:02:00,
2013-06-22 15:03:00,88.6,73.0,30.04,South,180,9.2,10.7,60,0.00,,,0.00,WUHU216HW,2013-06-22 20:03:00,
2013-06-22 15:05:00,88.6,73.0,30.04,SE,135,7.6,10.7,60,0.00,,,0.00,WUHU216HW,2013-06-22 20:05:00,
2013-06-22 15:06:00,88.6,73.0,30.03,SSE,158,8.5,10.7,60,0.00,,,0.00,WUHU216HW,2013-06-22 20:06:00,
2013-06-22 15:08:00,88.6,72.5,30.03,SSE,158,9.8,11.4,59,0.00,,,0.00,WUHU216HW,2013-06-22 20:08:00,
2013-06-22 15:09:00,88.6,72.5,30.03,SSE,158,8.1,11.4,59,0.00,,,0.00,WUHU216HW,2013-06-22 20:09:00,
2013-06-22 15:10:00,88.6,72.5,30.03,SSE,158,8.1,11.4,59,0.00,,,0.00,WUHU216HW,2013-06-22 20:10:00,
2013-06-22 15:11:00,88.4,71.7,30.03,SSE,158,9.6,11.4,58,0.00,,,0.00,WUHU216HW,2013-06-22 20:11:00,
2013-06-22 15:13:00,88.2,72.7,30.03,SSE,158,6.9,11.4,60,0.00,,,0.00,WUHU216HW,2013-06-22 20:13:00,
2013-06-22 15:14:00,88.6,72.5,30.03,SSW,203,6.9,11.4,59,0.00,,,0.00,WUHU216HW,2013-06-22 20:14:00,
2013-06-22 15:15:00,88.6,72.5,30.03,SSW,203,6.9,11.4,59,0.00,,,0.00,WUHU216HW,2013-06-22 20:15:00,
2013-06-22 15:16:00,88.7,73.2,30.02,SSE,158,8.5,11.4,60,0.00,,,0.00,WUHU216HW,2013-06-22 20:16:00,
2013-06-22 15:17:00,88.6,73.0,30.03,SSE,158,7.2,9.8,60,0.00,,,0.00,WUHU216HW,2013-06-22 20:17:00,
2013-06-22 15:18:00,88.4,72.8,30.02,South,180,5.8,9.8,60,0.00,,,0.00,WUHU216HW,2013-06-22 20:18:00,
2013-06-22 15:20:00,88.6,73.0,30.02,South,180,8.1,9.8,60,0.00,,,0.00,WUHU216HW,2013-06-22 20:20:00,
2013-06-22 15:22:00,88.7,73.2,30.02,South,180,8.5,8.5,60,0.00,,,0.00,WUHU216HW,2013-06-22 20:22:00,
2013-06-22 15:25:00,89.3,71.5,30.02,SSE,158,13.2,13.2,56,0.00,,,0.00,WUHU216HW,2013-06-22 20:25:00,
2013-06-22 15:26:00,89.1,74.0,30.02,SSE,158,5.4,8.5,61,0.00,,,0.00,WUHU216HW,2013-06-22 20:26:00,
2013-06-22 15:27:00,88.7,71.0,30.02,SSE,158,10.7,13.2,56,0.00,,,0.00,WUHU216HW,2013-06-22 20:27:00,
2013-06-22 15:29:00,88.4,71.7,30.02,South,180,11.0,13.2,58,0.00,,,0.00,WUHU216HW,2013-06-22 20:29:00,
2013-06-22 15:30:00,88.4,70.7,30.02,SSE,158,10.5,13.2,56,0.00,,,0.00,WUHU216HW,2013-06-22 20:30:00,
2013-06-22 15:31:00,88.4,70.7,30.02,SSE,158,10.5,13.2,56,0.00,,,0.00,WUHU216HW,2013-06-22 20:31:00,
2013-06-22 15:33:00,88.6,71.4,30.01,SSE,158,9.2,13.2,57,0.00,,,0.00,WUHU216HW,2013-06-22 20:33:00,
2013-06-22 15:35:00,88.7,71.0,30.02,South,180,10.1,12.8,56,0.00,,,0.00,WUHU216HW,2013-06-22 20:35:00,
2013-06-22 15:36:00,88.7,71.0,30.02,South,180,10.1,12.8,56,0.00,,,0.00,WUHU216HW,2013-06-22 20:36:00,
2013-06-22 15:37:00,88.9,72.3,30.01,SSE,158,7.2,11.0,58,0.00,,,0.00,WUHU216HW,2013-06-22 20:37:00,
2013-06-22 15:39:00,88.7,71.0,30.01,South,180,10.5,10.5,56,0.00,,,0.00,WUHU216HW,2013-06-22 20:39:00,
2013-06-22 15:41:00,88.7,71.6,30.01,SSE,158,8.1,10.5,57,0.00,,,0.00,WUHU216HW,2013-06-22 20:41:00,
2013-06-22 15:44:00,88.6,71.4,30.01,SSW,203,9.2,13.2,57,0.00,,,0.00,WUHU216HW,2013-06-22 20:44:00,
2013-06-22 15:45:00,88.6,71.4,30.01,SSE,158,6.9,13.2,57,0.00,,,0.00,WUHU216HW,2013-06-22 20:45:00,
2013-06-22 15:46:00,88.6,71.4,30.01,SSE,158,6.9,13.2,57,0.00,,,0.00,WUHU216HW,2013-06-22 20:46:00,
2013-06-22 15:47:00,88.6,70.8,30.01,SSE,158,10.1,13.2,56,0.00,,,0.00,WUHU216HW,2013-06-22 20:47:00,
2013-06-22 15:48:00,88.6,71.4,30.01,SSE,158,11.0,13.2,57,0.00,,,0.00,WUHU216HW,2013-06-22 20:48:00,
2013-06-22 15:51:00,88.4,72.3,30.01,SSW,203,4.7,13.2,59,0.00,,,0.00,WUHU216HW,2013-06-22 20:51:00,
2013-06-22 15:52:00,88.6,70.8,30.01,South,180,8.1,11.4,56,0.00,,,0.00,WUHU216HW,2013-06-22 20:52:00,
2013-06-22 15:54:00,88.7,71.6,30.00,South,180,7.6,11.4,57,0.00,,,0.00,WUHU216HW,2013-06-22 20:54:00,
2013-06-22 15:56:00,88.9,72.3,30.00,SSW,203,7.6,11.4,58,0.00,,,0.00,WUHU216HW,2013-06-22 20:56:00,
2013-06-22 15:57:00,88.9,72.3,30.00,SSW,203,7.6,11.4,58,0.00,,,0.00,WUHU216HW,2013-06-22 20:57:00,
2013-06-22 16:00:00,88.7,70.5,30.00,South,180,9.4,13.4,55,0.00,,,0.00,WUHU216HW,2013-06-22 21:00:00,
2013-06-22 16:02:00,88.7,70.5,30.00,South,180,9.4,13.4,55,0.00,,,0.00,WUHU216HW,2013-06-22 21:02:00,
2013-06-22 16:04:00,88.7,70.5,30.00,SSE,158,12.8,13.4,55,0.00,,,0.00,WUHU216HW,2013-06-22 21:04:00,
2013-06-22 16:05:00,88.6,70.3,30.00,SSE,158,11.9,13.4,55,0.00,,,0.00,WUHU216HW,2013-06-22 21:05:00,
2013-06-22 16:06:00,88.6,70.3,30.00,South,180,10.5,13.4,55,0.00,,,0.00,WUHU216HW,2013-06-22 21:06:00,
2013-06-22 16:07:00,88.6,70.3,30.00,South,180,10.5,13.4,55,0.00,,,0.00,WUHU216HW,2013-06-22 21:07:00,
2013-06-22 16:08:00,88.7,71.6,30.00,South,180,4.7,12.8,57,0.00,,,0.00,WUHU216HW,2013-06-22 21:08:00,
2013-06-22 16:09:00,88.7,71.0,30.00,SSE,158,9.2,12.8,56,0.00,,,0.00,WUHU216HW,2013-06-22 21:09:00,
2013-06-22 16:12:00,88.9,71.7,30.00,SSE,158,6.5,12.8,57,0.00,,,0.00,WUHU216HW,2013-06-22 21:12:00,
2013-06-22 16:14:00,89.1,71.4,30.00,South,180,6.9,11.9,56,0.00,,,0.00,WUHU216HW,2013-06-22 21:14:00,
2013-06-22 16:15:00,89.3,72.0,30.00,South,180,8.5,11.4,57,0.00,,,0.00,WUHU216HW,2013-06-22 21:15:00,
2013-06-22 16:17:00,89.5,71.1,30.00,South,180,9.2,10.3,55,0.00,,,0.00,WUHU216HW,2013-06-22 21:17:00,
2013-06-22 16:21:00,89.1,70.8,29.99,South,180,9.6,12.5,55,0.00,,,0.00,WUHU216HW,2013-06-22 21:21:00,
2013-06-22 16:22:00,89.1,70.8,29.99,South,180,9.6,12.5,55,0.00,,,0.00,WUHU216HW,2013-06-22 21:22:00,
2013-06-22 16:23:00,88.9,70.7,29.99,SSE,158,8.9,12.5,55,0.00,,,0.00,WUHU216HW,2013-06-22 21:23:00,
2013-06-22 16:27:00,88.6,70.8,29.99,SSE,158,9.8,12.5,56,0.00,,,0.00,WUHU216HW,2013-06-22 21:27:00,
2013-06-22 16:29:00,88.4,70.7,29.99,SE,135,9.8,13.2,56,0.00,,,0.00,WUHU216HW,2013-06-22 21:29:00,
2013-06-22 16:32:00,88.4,69.6,29.99,SSE,158,13.4,15.0,54,0.00,,,0.00,WUHU216HW,2013-06-22 21:32:00,
2013-06-22 16:33:00,88.2,70.0,29.99,South,180,10.5,15.0,55,0.00,,,0.00,WUHU216HW,2013-06-22 21:33:00,
2013-06-22 16:34:00,88.2,70.6,29.99,SE,135,8.5,15.0,56,0.00,,,0.00,WUHU216HW,2013-06-22 21:34:00,
2013-06-22 16:37:00,88.6,70.3,29.99,SE,135,9.2,15.0,55,0.00,,,0.00,WUHU216HW,2013-06-22 21:37:00,
2013-06-22 16:38:00,88.2,70.6,29.98,SE,135,10.7,15.0,56,0.00,,,0.00,WUHU216HW,2013-06-22 21:38:00,
2013-06-22 16:41:00,88.2,71.1,29.98,SSE,158,8.5,13.4,57,0.00,,,0.00,WUHU216HW,2013-06-22 21:41:00,
2013-06-22 16:42:00,88.2,71.1,29.98,SSE,158,8.5,13.4,57,0.00,,,0.00,WUHU216HW,2013-06-22 21:42:00,
2013-06-22 16:43:00,88.2,70.6,29.98,SSE,158,10.3,13.0,56,0.00,,,0.00,WUHU216HW,2013-06-22 21:43:00,
2013-06-22 16:47:00,88.2,69.5,29.98,SSE,158,9.8,13.0,54,0.00,,,0.00,WUHU216HW,2013-06-22 21:47:00,
2013-06-22 16:49:00,88.2,70.0,29.98,SSE,158,13.6,13.6,55,0.00,,,0.00,WUHU216HW,2013-06-22 21:49:00,
2013-06-22 16:51:00,88.4,70.1,29.97,SSE,158,11.4,13.6,55,0.00,,,0.00,WUHU216HW,2013-06-22 21:51:00,
2013-06-22 16:52:00,88.4,70.1,29.97,SSE,158,11.4,13.6,55,0.00,,,0.00,WUHU216HW,2013-06-22 21:52:00,
2013-06-22 16:53:00,88.4,70.7,29.97,South,180,6.3,13.6,56,0.00,,,0.00,WUHU216HW,2013-06-22 21:53:00,
2013-06-22 16:55:00,88.6,70.3,29.97,SSE,158,12.1,13.6,55,0.00,,,0.00,WUHU216HW,2013-06-22 21:55:00,
2013-06-22 16:56:00,88.6,69.8,29.97,South,180,11.4,13.6,54,0.00,,,0.00,WUHU216HW,2013-06-22 21:56:00,
2013-06-22 16:57:00,88.6,69.8,29.97,South,180,11.4,13.6,54,0.00,,,0.00,WUHU216HW,2013-06-22 21:57:00,
2013-06-22 16:58:00,88.6,69.8,29.97,SSE,158,11.0,13.6,54,0.00,,,0.00,WUHU216HW,2013-06-22 21:58:00,
2013-06-22 17:02:00,88.2,70.0,29.97,SE,135,9.8,12.1,55,0.00,,,0.00,WUHU216HW,2013-06-22 22:02:00,
2013-06-22 17:03:00,88.2,70.6,29.97,SE,135,10.5,12.1,56,0.00,,,0.00,WUHU216HW,2013-06-22 22:03:00,
2013-06-22 17:06:00,88.0,70.9,29.97,SE,135,10.5,11.6,57,0.00,,,0.00,WUHU216HW,2013-06-22 22:06:00,
2013-06-22 17:07:00,88.0,70.9,29.97,SE,135,10.5,11.6,57,0.00,,,0.00,WUHU216HW,2013-06-22 22:07:00,
2013-06-22 17:08:00,87.8,70.7,29.97,South,180,8.5,11.6,57,0.00,,,0.00,WUHU216HW,2013-06-22 22:08:00,
2013-06-22 17:09:00,88.0,71.5,29.97,SSE,158,8.7,10.5,58,0.00,,,0.00,WUHU216HW,2013-06-22 22:09:00,
2013-06-22 17:11:00,88.6,70.8,29.97,SSE,158,8.7,10.5,56,0.00,,,0.00,WUHU216HW,2013-06-22 22:11:00,
2013-06-22 17:12:00,88.6,71.4,29.97,SSW,203,6.9,10.5,57,0.00,,,0.00,WUHU216HW,2013-06-22 22:12:00,
2013-06-22 17:14:00,88.7,71.0,29.97,SSE,158,9.6,10.5,56,0.00,,,0.00,WUHU216HW,2013-06-22 22:14:00,
2013-06-22 17:16:00,88.7,72.1,29.97,SW,225,6.0,10.3,58,0.00,,,0.00,WUHU216HW,2013-06-22 22:16:00,
2013-06-22 17:17:00,88.7,72.1,29.97,SW,225,6.0,10.3,58,0.00,,,0.00,WUHU216HW,2013-06-22 22:17:00,
2013-06-22 17:20:00,88.9,70.1,29.97,SSE,158,11.4,11.4,54,0.00,,,0.00,WUHU216HW,2013-06-22 22:20:00,
2013-06-22 17:22:00,88.6,70.3,29.97,SSE,158,10.1,11.4,55,0.00,,,0.00,WUHU216HW,2013-06-22 22:22:00,
2013-06-22 17:23:00,88.6,70.3,29.97,WSW,248,12.8,12.8,55,0.00,,,0.00,WUHU216HW,2013-06-22 22:23:00,
2013-06-22 17:25:00,88.4,69.6,29.97,SE,135,10.3,12.8,54,0.00,,,0.00,WUHU216HW,2013-06-22 22:25:00,
2013-06-22 17:28:00,88.4,69.6,29.97,SSE,158,9.8,12.8,54,0.00,,,0.00,WUHU216HW,2013-06-22 22:28:00,
2013-06-22 17:29:00,88.4,70.1,29.97,South,180,13.6,13.6,55,0.00,,,0.00,WUHU216HW,2013-06-22 22:29:00,
2013-06-22 17:30:00,88.4,70.7,29.97,SSW,203,5.4,13.6,56,0.00,,,0.00,WUHU216HW,2013-06-22 22:30:00,
2013-06-22 17:33:00,88.6,70.3,29.97,SSE,158,9.2,13.6,55,0.00,,,0.00,WUHU216HW,2013-06-22 22:33:00,
2013-06-22 17:34:00,88.7,71.6,29.97,SE,135,9.4,13.6,57,0.00,,,0.00,WUHU216HW,2013-06-22 22:34:00,
2013-06-22 17:37:00,88.9,71.7,29.96,South,180,6.0,13.6,57,0.00,,,0.00,WUHU216HW,2013-06-22 22:37:00,
2013-06-22 17:38:00,88.9,71.2,29.97,South,180,8.5,13.6,56,0.00,,,0.00,WUHU216HW,2013-06-22 22:38:00,
2013-06-22 17:39:00,88.9,71.7,29.96,SE,135,9.6,9.6,57,0.00,,,0.00,WUHU216HW,2013-06-22 22:39:00,
2013-06-22 17:41:00,88.6,71.4,29.97,SSE,158,8.5,9.6,57,0.00,,,0.00,WUHU216HW,2013-06-22 22:41:00,
2013-06-22 17:43:00,88.6,70.8,29.97,SSE,158,6.9,9.6,56,0.00,,,0.00,WUHU216HW,2013-06-22 22:43:00,
2013-06-22 17:45:00,88.4,71.7,29.96,South,180,8.3,10.5,58,0.00,,,0.00,WUHU216HW,2013-06-22 22:45:00,
2013-06-22 17:48:00,88.2,71.7,29.96,SSE,158,9.4,10.5,58,0.00,,,0.00,WUHU216HW,2013-06-22 22:48:00,
2013-06-22 17:50:00,88.0,71.5,29.96,South,180,7.4,10.5,58,0.00,,,0.00,WUHU216HW,2013-06-22 22:50:00,
2013-06-22 17:52:00,87.8,71.8,29.96,SSE,158,8.5,10.5,59,0.00,,,0.00,WUHU216HW,2013-06-22 22:52:00,
2013-06-22 17:53:00,87.8,71.8,29.96,SSE,158,8.5,10.5,59,0.00,,,0.00,WUHU216HW,2013-06-22 22:53:00,
2013-06-22 17:58:00,87.7,71.6,29.96,SSE,158,9.8,10.1,59,0.00,,,0.00,WUHU216HW,2013-06-22 22:58:00,
2013-06-22 18:00:00,87.8,71.3,29.96,SSW,203,8.7,9.8,58,0.00,,,0.00,WUHU216HW,2013-06-22 23:00:00,
2013-06-22 18:02:00,87.8,70.7,29.96,SSE,158,7.2,9.8,57,0.00,,,0.00,WUHU216HW,2013-06-22 23:02:00,
2013-06-22 18:03:00,87.8,71.3,29.96,SSE,158,7.2,9.8,58,0.00,,,0.00,WUHU216HW,2013-06-22 23:03:00,
2013-06-22 18:04:00,87.8,70.7,29.96,SE,135,11.0,11.0,57,0.00,,,0.00,WUHU216HW,2013-06-22 23:04:00,
2013-06-22 18:08:00,87.8,72.4,29.96,SSE,158,7.4,11.0,60,0.00,,,0.00,WUHU216HW,2013-06-22 23:08:00,
2013-06-22 18:09:00,87.8,71.8,29.96,SSE,158,6.9,11.0,59,0.00,,,0.00,WUHU216HW,2013-06-22 23:09:00,
2013-06-22 18:10:00,87.8,71.8,29.96,SSE,158,5.6,11.0,59,0.00,,,0.00,WUHU216HW,2013-06-22 23:10:00,
2013-06-22 18:12:00,87.8,71.8,29.96,SSW,203,6.9,11.0,59,0.00,,,0.00,WUHU216HW,2013-06-22 23:12:00,
2013-06-22 18:13:00,87.8,71.3,29.96,SE,135,9.6,11.0,58,0.00,,,0.00,WUHU216HW,2013-06-22 23:13:00,
2013-06-22 18:14:00,87.8,71.8,29.96,SSE,158,6.9,9.6,59,0.00,,,0.00,WUHU216HW,2013-06-22 23:14:00,
2013-06-22 18:18:00,87.7,72.2,29.96,SSE,158,6.3,9.6,60,0.00,,,0.00,WUHU216HW,2013-06-22 23:18:00,
2013-06-22 18:20:00,87.5,72.0,29.96,SSE,158,7.4,9.6,60,0.00,,,0.00,WUHU216HW,2013-06-22 23:20:00,
2013-06-22 18:24:00,87.5,71.5,29.95,SSE,158,9.2,9.2,59,0.00,,,0.00,WUHU216HW,2013-06-22 23:24:00,
2013-06-22 18:25:00,87.5,72.0,29.95,SSE,158,7.4,9.2,60,0.00,,,0.00,WUHU216HW,2013-06-22 23:25:00,
2013-06-22 18:27:00,87.3,72.3,29.95,SSE,158,8.5,9.2,61,0.00,,,0.00,WUHU216HW,2013-06-22 23:27:00,
2013-06-22 18:29:00,87.3,72.3,29.95,SSE,158,8.5,9.2,61,0.00,,,0.00,WUHU216HW,2013-06-22 23:29:00,
2013-06-22 18:31:00,87.3,71.8,29.95,SSE,158,8.5,9.2,60,0.00,,,0.00,WUHU216HW,2013-06-22 23:31:00,
2013-06-22 18:32:00,87.3,72.3,29.95,SSE,158,8.5,8.5,61,0.00,,,0.00,WUHU216HW,2013-06-22 23:32:00,
2013-06-22 18:34:00,87.3,72.3,29.95,SSE,158,8.5,8.5,61,0.00,,,0.00,WUHU216HW,2013-06-22 23:34:00,
2013-06-22 18:35:00,86.9,71.9,29.95,SSE,158,10.1,10.1,61,0.00,,,0.00,WUHU216HW,2013-06-22 23:35:00,
2013-06-22 18:36:00,86.8,72.2,29.95,SSE,158,6.5,10.1,62,0.00,,,0.00,WUHU216HW,2013-06-22 23:36:00,
2013-06-22 18:38:00,86.9,72.4,29.95,SSE,158,7.4,10.1,62,0.00,,,0.00,WUHU216HW,2013-06-22 23:38:00,
2013-06-22 18:39:00,87.3,71.8,29.95,SSE,158,8.5,9.2,60,0.00,,,0.00,WUHU216HW,2013-06-22 23:39:00,
2013-06-22 18:42:00,86.8,72.2,29.95,SSE,158,6.3,10.1,62,0.00,,,0.00,WUHU216HW,2013-06-22 23:42:00,
2013-06-22 18:43:00,86.8,72.2,29.95,SSE,158,8.7,10.1,62,0.00,,,0.00,WUHU216HW,2013-06-22 23:43:00,
2013-06-22 18:44:00,86.8,72.2,29.95,SSE,158,8.7,10.1,62,0.00,,,0.00,WUHU216HW,2013-06-22 23:44:00,
2013-06-22 18:46:00,86.8,73.1,29.95,SSE,158,6.0,8.7,64,0.00,,,0.00,WUHU216HW,2013-06-22 23:46:00,
2013-06-22 18:47:00,86.6,72.5,29.95,SSE,158,6.3,8.7,63,0.00,,,0.00,WUHU216HW,2013-06-22 23:47:00,
2013-06-22 18:49:00,86.6,72.5,29.95,SSE,158,6.3,8.7,63,0.00,,,0.00,WUHU216HW,2013-06-22 23:49:00,
2013-06-22 18:50:00,86.6,72.0,29.95,SSE,158,6.3,8.7,62,0.00,,,0.00,WUHU216HW,2013-06-22 23:50:00,
2013-06-22 18:54:00,86.6,72.5,29.95,SSE,158,6.5,7.6,63,0.00,,,0.00,WUHU216HW,2013-06-22 23:54:00,
2013-06-22 18:59:00,86.4,71.8,29.95,SSE,158,6.3,7.2,62,0.00,,,0.00,WUHU216HW,2013-06-22 23:59:00,
2013-06-22 19:01:00,86.4,72.3,29.95,SSE,158,6.3,7.2,63,0.00,,,0.00,WUHU216HW,2013-06-23 00:01:00,
2013-06-22 19:04:00,86.2,72.2,29.95,SE,135,7.6,7.6,63,0.00,,,0.00,WUHU216HW,2013-06-23 00:04:00,
2013-06-22 19:05:00,86.2,72.6,29.95,SSE,158,6.7,7.6,64,0.00,,,0.00,WUHU216HW,2013-06-23 00:05:00,
2013-06-22 19:07:00,86.2,72.2,29.95,SE,135,5.8,7.6,63,0.00,,,0.00,WUHU216HW,2013-06-23 00:07:00,
2013-06-22 19:08:00,86.2,72.6,29.95,SE,135,4.9,7.6,64,0.00,,,0.00,WUHU216HW,2013-06-23 00:08:00,
2013-06-22 19:09:00,86.2,72.6,29.95,SE,135,4.9,7.6,64,0.00,,,0.00,WUHU216HW,2013-06-23 00:09:00,
2013-06-22 19:10:00,86.2,73.1,29.95,SSE,158,5.4,7.6,65,0.00,,,0.00,WUHU216HW,2013-06-23 00:10:00,
2013-06-22 19:11:00,86.0,72.0,29.95,SE,135,6.5,7.6,63,0.00,,,0.00,WUHU216HW,2013-06-23 00:11:00,
2013-06-22 19:12:00,86.0,72.5,29.95,SE,135,5.4,7.6,64,0.00,,,0.00,WUHU216HW,2013-06-23 00:12:00,
2013-06-22 19:14:00,86.2,72.6,29.95,SSE,158,6.7,7.6,64,0.00,,,0.00,WUHU216HW,2013-06-23 00:14:00,
2013-06-22 19:15:00,86.0,72.0,29.95,SE,135,7.4,7.4,63,0.00,,,0.00,WUHU216HW,2013-06-23 00:15:00,
2013-06-22 19:17:00,86.0,72.5,29.95,SSE,158,6.3,7.4,64,0.00,,,0.00,WUHU216HW,2013-06-23 00:17:00,
2013-06-22 19:18:00,86.0,72.5,29.95,SSE,158,5.6,7.4,64,0.00,,,0.00,WUHU216HW,2013-06-23 00:18:00,
2013-06-22 19:19:00,86.0,72.5,29.95,SSE,158,6.3,7.4,64,0.00,,,0.00,WUHU216HW,2013-06-23 00:19:00,
2013-06-22 19:20:00,86.0,72.5,29.95,SSE,158,6.3,7.4,64,0.00,,,0.00,WUHU216HW,2013-06-23 00:20:00,
2013-06-22 19:21:00,85.7,72.1,29.95,SSE,158,7.2,7.4,64,0.00,,,0.00,WUHU216HW,2013-06-23 00:21:00,
2013-06-22 19:23:00,85.7,72.1,29.95,SE,135,6.5,9.6,64,0.00,,,0.00,WUHU216HW,2013-06-23 00:23:00,
2013-06-22 19:24:00,85.7,72.1,29.95,SE,135,6.5,9.6,64,0.00,,,0.00,WUHU216HW,2013-06-23 00:24:00,
2013-06-22 19:25:00,85.7,72.1,29.95,SE,135,6.5,9.6,64,0.00,,,0.00,WUHU216HW,2013-06-23 00:25:00,
2013-06-22 19:26:00,85.5,71.9,29.95,SSE,158,8.3,9.6,64,0.00,,,0.00,WUHU216HW,2013-06-23 00:26:00,
2013-06-22 19:28:00,85.5,72.4,29.95,SE,135,6.3,9.6,65,0.00,,,0.00,WUHU216HW,2013-06-23 00:28:00,
2013-06-22 19:30:00,85.3,72.2,29.95,SE,135,4.9,9.6,65,0.00,,,0.00,WUHU216HW,2013-06-23 00:30:00,
2013-06-22 19:31:00,85.3,72.2,29.95,SE,135,5.4,9.6,65,0.00,,,0.00,WUHU216HW,2013-06-23 00:31:00,
2013-06-22 19:32:00,85.3,72.2,29.95,ESE,113,6.0,8.3,65,0.00,,,0.00,WUHU216HW,2013-06-23 00:32:00,
2013-06-22 19:33:00,85.3,72.2,29.95,SE,135,5.4,8.3,65,0.00,,,0.00,WUHU216HW,2013-06-23 00:33:00,
2013-06-22 19:35:00,85.3,72.2,29.95,SE,135,5.4,8.3,65,0.00,,,0.00,WUHU216HW,2013-06-23 00:35:00,
2013-06-22 19:36:00,85.1,72.0,29.95,ESE,113,6.3,6.5,65,0.00,,,0.00,WUHU216HW,2013-06-23 00:36:00,
2013-06-22 19:39:00,85.0,71.5,29.95,SE,135,7.4,7.4,64,0.00,,,0.00,WUHU216HW,2013-06-23 00:39:00,
2013-06-22 19:40:00,85.0,71.5,29.95,SE,135,7.4,7.4,64,0.00,,,0.00,WUHU216HW,2013-06-23 00:40:00,
2013-06-22 19:41:00,85.0,71.5,29.95,SSE,158,7.4,7.6,64,0.00,,,0.00,WUHU216HW,2013-06-23 00:41:00,
2013-06-22 19:42:00,84.8,71.7,29.95,SE,135,6.9,7.6,65,0.00,,,0.00,WUHU216HW,2013-06-23 00:42:00,
2013-06-22 19:43:00,84.8,71.7,29.95,SE,135,6.7,7.6,65,0.00,,,0.00,WUHU216HW,2013-06-23 00:43:00,
2013-06-22 19:45:00,84.8,71.7,29.95,SE,135,6.7,7.6,65,0.00,,,0.00,WUHU216HW,2013-06-23 00:45:00,
2013-06-22 19:46:00,84.6,71.1,29.95,SSE,158,8.1,8.1,64,0.00,,,0.00,WUHU216HW,2013-06-23 00:46:00,
2013-06-22 19:48:00,84.6,71.6,29.95,SE,135,6.3,8.1,65,0.00,,,0.00,WUHU216HW,2013-06-23 00:48:00,
2013-06-22 19:49:00,84.4,71.4,29.95,SE,135,6.7,8.1,65,0.00,,,0.00,WUHU216HW,2013-06-23 00:49:00,
2013-06-22 19:50:00,84.4,71.4,29.95,SE,135,6.7,8.1,65,0.00,,,0.00,WUHU216HW,2013-06-23 00:50:00,
2013-06-22 19:52:00,84.2,71.2,29.95,SSE,158,7.2,8.7,65,0.00,,,0.00,WUHU216HW,2013-06-23 00:52:00,
2013-06-22 19:53:00,84.2,70.7,29.95,SSE,158,8.1,8.7,64,0.00,,,0.00,WUHU216HW,2013-06-23 00:53:00,
2013-06-22 19:55:00,84.1,71.0,29.95,SSE,158,6.9,8.7,65,0.00,,,0.00,WUHU216HW,2013-06-23 00:55:00,
2013-06-22 19:56:00,84.1,71.0,29.95,SE,135,6.3,8.7,65,0.00,,,0.00,WUHU216HW,2013-06-23 00:56:00,
2013-06-22 19:59:00,83.9,71.3,29.95,SSE,158,6.7,8.7,66,0.00,,,0.00,WUHU216HW,2013-06-23 00:59:00,
2013-06-22 20:00:00,83.9,71.3,29.95,SSE,158,6.7,8.7,66,0.00,,,0.00,WUHU216HW,2013-06-23 01:00:00,
2013-06-22 20:06:00,83.5,70.5,29.95,SSE,158,7.8,8.3,65,0.00,,,0.00,WUHU216HW,2013-06-23 01:06:00,
2013-06-22 20:07:00,83.3,70.7,29.95,SE,135,6.7,8.3,66,0.00,,,0.00,WUHU216HW,2013-06-23 01:07:00,
2013-06-22 20:09:00,83.2,71.0,29.95,SE,135,4.7,8.3,67,0.00,,,0.00,WUHU216HW,2013-06-23 01:09:00,
2013-06-22 20:11:00,83.0,70.8,29.95,SE,135,4.7,8.3,67,0.00,,,0.00,WUHU216HW,2013-06-23 01:11:00,
2013-06-22 20:16:00,82.3,69.7,29.95,ESE,113,3.4,6.7,66,0.00,,,0.00,WUHU216HW,2013-06-23 01:16:00,
2013-06-22 20:18:00,82.1,69.9,29.96,SE,135,4.5,5.6,67,0.00,,,0.00,WUHU216HW,2013-06-23 01:18:00,
2013-06-22 20:19:00,82.1,69.9,29.95,SSE,158,4.3,5.6,67,0.00,,,0.00,WUHU216HW,2013-06-23 01:19:00,
2013-06-22 20:21:00,82.1,70.4,29.96,SSE,158,3.4,4.7,68,0.00,,,0.00,WUHU216HW,2013-06-23 01:21:00,
2013-06-22 20:23:00,81.7,70.1,29.96,SSE,158,5.4,5.4,68,0.00,,,0.00,WUHU216HW,2013-06-23 01:23:00,
2013-06-22 20:24:00,81.7,70.1,29.95,SSE,158,4.7,5.4,68,0.00,,,0.00,WUHU216HW,2013-06-23 01:24:00,
2013-06-22 20:26:00,81.5,69.9,29.96,SSE,158,5.4,5.4,68,0.00,,,0.00,WUHU216HW,2013-06-23 01:26:00,
2013-06-22 20:28:00,81.4,70.2,29.96,SE,135,5.6,5.6,69,0.00,,,0.00,WUHU216HW,2013-06-23 01:28:00,
2013-06-22 20:30:00,81.2,70.0,29.96,SE,135,5.1,5.6,69,0.00,,,0.00,WUHU216HW,2013-06-23 01:30:00,
2013-06-22 20:31:00,81.2,70.0,29.96,SE,135,5.1,5.6,69,0.00,,,0.00,WUHU216HW,2013-06-23 01:31:00,
2013-06-22 20:32:00,81.0,69.9,29.96,SE,135,5.4,5.6,69,0.00,,,0.00,WUHU216HW,2013-06-23 01:32:00,
2013-06-22 20:33:00,81.0,70.4,29.96,SE,135,4.7,5.6,70,0.00,,,0.00,WUHU216HW,2013-06-23 01:33:00,
2013-06-22 20:35:00,80.8,70.2,29.96,SE,135,3.4,5.6,70,0.00,,,0.00,WUHU216HW,2013-06-23 01:35:00,
2013-06-22 20:36:00,80.8,70.2,29.96,SE,135,4.5,5.6,70,0.00,,,0.00,WUHU216HW,2013-06-23 01:36:00,
2013-06-22 20:37:00,80.8,70.2,29.96,SE,135,4.5,5.6,70,0.00,,,0.00,WUHU216HW,2013-06-23 01:37:00,
2013-06-22 20:42:00,80.5,70.2,29.96,ESE,113,4.7,5.4,71,0.00,,,0.00,WUHU216HW,2013-06-23 01:42:00,
2013-06-22 20:43:00,80.3,70.0,29.96,SE,135,4.9,5.1,71,0.00,,,0.00,WUHU216HW,2013-06-23 01:43:00,
2013-06-22 20:45:00,80.3,70.0,29.96,SE,135,5.1,5.1,71,0.00,,,0.00,WUHU216HW,2013-06-23 01:45:00,
2013-06-22 20:47:00,80.3,70.0,29.96,SE,135,5.1,5.1,71,0.00,,,0.00,WUHU216HW,2013-06-23 01:47:00,
2013-06-22 20:49:00,80.3,70.0,29.96,SE,135,4.7,5.8,71,0.00,,,0.00,WUHU216HW,2013-06-23 01:49:00,
2013-06-22 20:50:00,80.3,70.0,29.96,SE,135,5.4,5.8,71,0.00,,,0.00,WUHU216HW,2013-06-23 01:50:00,
2013-06-22 20:51:00,80.3,70.0,29.95,SE,135,4.5,5.8,71,0.00,,,0.00,WUHU216HW,2013-06-23 01:51:00,
2013-06-22 20:52:00,80.3,70.0,29.96,SE,135,5.4,5.8,71,0.00,,,0.00,WUHU216HW,2013-06-23 01:52:00,
2013-06-22 20:53:00,80.1,69.8,29.96,ESE,113,4.9,5.8,71,0.00,,,0.00,WUHU216HW,2013-06-23 01:53:00,
2013-06-22 20:54:00,79.9,69.7,29.96,SE,135,3.1,5.8,71,0.00,,,0.00,WUHU216HW,2013-06-23 01:54:00,
2013-06-22 20:56:00,79.7,69.9,29.96,SE,135,4.7,5.8,72,0.00,,,0.00,WUHU216HW,2013-06-23 01:56:00,
2013-06-22 20:57:00,79.7,69.9,29.96,SE,135,4.7,5.8,72,0.00,,,0.00,WUHU216HW,2013-06-23 01:57:00,
2013-06-22 21:00:00,79.6,69.8,29.95,SE,135,6.3,6.3,72,0.00,,,0.00,WUHU216HW,2013-06-23 02:00:00,
2013-06-22 21:02:00,79.6,69.8,29.95,SE,135,5.1,6.3,72,0.00,,,0.00,WUHU216HW,2013-06-23 02:02:00,
2013-06-22 21:03:00,79.4,69.6,29.95,SE,135,5.1,6.3,72,0.00,,,0.00,WUHU216HW,2013-06-23 02:03:00,
2013-06-22 21:04:00,79.4,69.9,29.95,SE,135,5.4,6.3,73,0.00,,,0.00,WUHU216HW,2013-06-23 02:04:00,
2013-06-22 21:07:00,79.0,69.6,29.95,SSE,158,5.6,6.3,73,0.00,,,0.00,WUHU216HW,2013-06-23 02:07:00,
2013-06-22 21:08:00,78.8,69.4,29.95,SE,135,6.9,6.9,73,0.00,,,0.00,WUHU216HW,2013-06-23 02:08:00,
2013-06-22 21:09:00,78.8,69.4,29.95,SE,135,4.0,6.9,73,0.00,,,0.00,WUHU216HW,2013-06-23 02:09:00,
2013-06-22 21:10:00,78.8,69.4,29.95,SSE,158,5.4,6.9,73,0.00,,,0.00,WUHU216HW,2013-06-23 02:10:00,
2013-06-22 21:12:00,78.8,69.4,29.95,SE,135,4.7,6.9,73,0.00,,,0.00,WUHU216HW,2013-06-23 02:12:00,
2013-06-22 21:14:00,79.0,69.6,29.95,SE,135,5.1,6.9,73,0.00,,,0.00,WUHU216HW,2013-06-23 02:14:00,
2013-06-22 21:16:00,79.0,69.6,29.95,SE,135,5.4,6.9,73,0.00,,,0.00,WUHU216HW,2013-06-23 02:16:00,
2013-06-22 21:17:00,79.0,69.6,29.95,SE,135,4.9,6.9,73,0.00,,,0.00,WUHU216HW,2013-06-23 02:17:00,
2013-06-22 21:19:00,78.8,69.4,29.95,SE,135,4.5,6.0,73,0.00,,,0.00,WUHU216HW,2013-06-23 02:19:00,
2013-06-22 21:21:00,78.7,69.7,29.95,SE,135,3.4,6.0,74,0.00,,,0.00,WUHU216HW,2013-06-23 02:21:00,
2013-06-22 21:22:00,78.7,69.7,29.95,SE,135,3.8,6.0,74,0.00,,,0.00,WUHU216HW,2013-06-23 02:22:00,
2013-06-22 21:24:00,78.5,69.5,29.95,SE,135,5.8,5.8,74,0.00,,,0.00,WUHU216HW,2013-06-23 02:24:00,
2013-06-22 21:26:00,78.3,69.3,29.95,SSE,158,4.0,5.8,74,0.00,,,0.00,WUHU216HW,2013-06-23 02:26:00,
2013-06-22 21:28:00,78.3,69.7,29.95,SE,135,4.5,5.8,75,0.00,,,0.00,WUHU216HW,2013-06-23 02:28:00,
2013-06-22 21:30:00,78.1,69.5,29.95,SSE,158,5.6,5.8,75,0.00,,,0.00,WUHU216HW,2013-06-23 02:30:00,
2013-06-22 21:31:00,78.1,69.5,29.95,SSE,158,5.6,5.8,75,0.00,,,0.00,WUHU216HW,2013-06-23 02:31:00,
2013-06-22 21:32:00,77.9,69.3,29.95,SE,135,5.1,5.8,75,0.00,,,0.00,WUHU216HW,2013-06-23 02:32:00,
2013-06-22 21:33:00,77.9,69.3,29.95,SE,135,5.1,5.8,75,0.00,,,0.00,WUHU216HW,2013-06-23 02:33:00,
2013-06-22 21:34:00,77.9,69.3,29.95,SE,135,4.7,5.6,75,0.00,,,0.00,WUHU216HW,2013-06-23 02:34:00,
2013-06-22 21:35:00,77.9,69.3,29.95,SSE,158,6.0,6.0,75,0.00,,,0.00,WUHU216HW,2013-06-23 02:35:00,
2013-06-22 21:37:00,77.9,69.3,29.95,SSE,158,3.6,6.0,75,0.00,,,0.00,WUHU216HW,2013-06-23 02:37:00,
2013-06-22 21:38:00,77.9,69.3,29.95,SSE,158,3.6,6.0,75,0.00,,,0.00,WUHU216HW,2013-06-23 02:38:00,
2013-06-22 21:39:00,77.8,69.2,29.96,SSE,158,5.1,6.0,75,0.00,,,0.00,WUHU216HW,2013-06-23 02:39:00,
2013-06-22 21:41:00,77.8,69.2,29.95,SE,135,6.0,6.0,75,0.00,,,0.00,WUHU216HW,2013-06-23 02:41:00,
2013-06-22 21:42:00,77.9,69.3,29.95,SSE,158,6.3,6.3,75,0.00,,,0.00,WUHU216HW,2013-06-23 02:42:00,
2013-06-22 21:43:00,77.9,69.3,29.95,SSE,158,6.3,6.3,75,0.00,,,0.00,WUHU216HW,2013-06-23 02:43:00,
2013-06-22 21:44:00,77.9,69.3,29.95,SE,135,4.5,6.3,75,0.00,,,0.00,WUHU216HW,2013-06-23 02:44:00,
2013-06-22 21:45:00,77.9,69.3,29.95,SE,135,5.8,6.3,75,0.00,,,0.00,WUHU216HW,2013-06-23 02:45:00,
2013-06-22 21:47:00,77.8,69.2,29.96,SSE,158,5.4,6.3,75,0.00,,,0.00,WUHU216HW,2013-06-23 02:47:00,
2013-06-22 21:48:00,77.8,69.2,29.96,SSE,158,5.4,6.3,75,0.00,,,0.00,WUHU216HW,2013-06-23 02:48:00,
2013-06-22 21:49:00,77.8,69.2,29.96,SE,135,6.7,6.7,75,0.00,,,0.00,WUHU216HW,2013-06-23 02:49:00,
2013-06-22 21:50:00,77.9,69.3,29.96,SSE,158,4.0,6.7,75,0.00,,,0.00,WUHU216HW,2013-06-23 02:50:00,
2013-06-22 21:52:00,77.9,69.3,29.96,SE,135,5.1,6.7,75,0.00,,,0.00,WUHU216HW,2013-06-23 02:52:00,
2013-06-22 21:53:00,77.9,69.3,29.96,SE,135,5.1,6.7,75,0.00,,,0.00,WUHU216HW,2013-06-23 02:53:00,
2013-06-22 21:55:00,77.9,69.3,29.96,SSE,158,4.7,6.7,75,0.00,,,0.00,WUHU216HW,2013-06-23 02:55:00,
2013-06-22 21:56:00,78.1,69.5,29.97,SSE,158,6.0,6.7,75,0.00,,,0.00,WUHU216HW,2013-06-23 02:56:00,
2013-06-22 21:58:00,77.9,69.3,29.97,SSE,158,4.3,6.7,75,0.00,,,0.00,WUHU216HW,2013-06-23 02:58:00,
2013-06-22 22:00:00,77.9,69.3,29.97,SSE,158,3.8,6.0,75,0.00,,,0.00,WUHU216HW,2013-06-23 03:00:00,
2013-06-22 22:03:00,77.8,69.2,29.97,SSE,158,4.5,6.0,75,0.00,,,0.00,WUHU216HW,2013-06-23 03:03:00,
2013-06-22 22:05:00,77.8,69.2,29.97,SSE,158,3.4,6.0,75,0.00,,,0.00,WUHU216HW,2013-06-23 03:05:00,
2013-06-22 22:07:00,77.8,69.2,29.97,SE,135,5.4,5.4,75,0.00,,,0.00,WUHU216HW,2013-06-23 03:07:00,
2013-06-22 22:08:00,77.8,69.2,29.97,SSE,158,4.0,5.4,75,0.00,,,0.00,WUHU216HW,2013-06-23 03:08:00,
2013-06-22 22:09:00,77.8,69.2,29.97,SE,135,5.1,5.4,75,0.00,,,0.00,WUHU216HW,2013-06-23 03:09:00,
2013-06-22 22:11:00,77.8,69.2,29.97,SSE,158,3.6,5.8,75,0.00,,,0.00,WUHU216HW,2013-06-23 03:11:00,
2013-06-22 22:13:00,77.8,69.2,29.98,SE,135,4.0,5.8,75,0.00,,,0.00,WUHU216HW,2013-06-23 03:13:00,
2013-06-22 22:15:00,77.6,69.0,29.98,SE,135,4.7,5.8,75,0.00,,,0.00,WUHU216HW,2013-06-23 03:15:00,
2013-06-22 22:16:00,77.6,69.0,29.98,SE,135,4.0,5.8,75,0.00,,,0.00,WUHU216HW,2013-06-23 03:16:00,
2013-06-22 22:18:00,77.6,69.0,29.98,SSE,158,3.4,5.8,75,0.00,,,0.00,WUHU216HW,2013-06-23 03:18:00,
2013-06-22 22:20:00,77.4,68.9,29.98,SE,135,3.4,5.1,75,0.00,,,0.00,WUHU216HW,2013-06-23 03:20:00,
2013-06-22 22:24:00,77.4,68.9,29.98,SE,135,4.0,5.1,75,0.00,,,0.00,WUHU216HW,2013-06-23 03:24:00,
2013-06-22 22:25:00,77.4,68.9,29.98,SE,135,3.4,5.1,75,0.00,,,0.00,WUHU216HW,2013-06-23 03:25:00,
2013-06-22 22:28:00,77.4,68.9,29.98,SE,135,3.8,4.5,75,0.00,,,0.00,WUHU216HW,2013-06-23 03:28:00,
2013-06-22 22:29:00,77.4,68.9,29.98,SE,135,3.8,4.5,75,0.00,,,0.00,WUHU216HW,2013-06-23 03:29:00,
2013-06-22 22:30:00,77.2,69.0,29.98,SE,135,4.0,4.5,76,0.00,,,0.00,WUHU216HW,2013-06-23 03:30:00,
2013-06-22 22:32:00,77.2,69.0,29.98,SE,135,4.5,4.5,76,0.00,,,0.00,WUHU216HW,2013-06-23 03:32:00,
2013-06-22 22:33:00,77.0,68.9,29.98,SSE,158,4.0,4.5,76,0.00,,,0.00,WUHU216HW,2013-06-23 03:33:00,
2013-06-22 22:34:00,77.0,68.9,29.98,SSE,158,4.0,4.5,76,0.00,,,0.00,WUHU216HW,2013-06-23 03:34:00,
2013-06-22 22:37:00,77.0,68.9,29.98,SE,135,3.1,4.7,76,0.00,,,0.00,WUHU216HW,2013-06-23 03:37:00,
2013-06-22 22:39:00,77.0,68.9,29.98,SE,135,3.1,4.7,76,0.00,,,0.00,WUHU216HW,2013-06-23 03:39:00,
2013-06-22 22:40:00,76.9,68.7,29.99,ESE,113,3.8,4.7,76,0.00,,,0.00,WUHU216HW,2013-06-23 03:40:00,
2013-06-22 22:42:00,76.9,68.7,29.99,SSE,158,3.1,4.7,76,0.00,,,0.00,WUHU216HW,2013-06-23 03:42:00,
2013-06-22 22:44:00,76.9,68.7,29.99,SE,135,3.8,4.5,76,0.00,,,0.00,WUHU216HW,2013-06-23 03:44:00,
2013-06-22 22:45:00,76.9,69.1,29.99,SE,135,3.4,3.8,77,0.00,,,0.00,WUHU216HW,2013-06-23 03:45:00,
2013-06-22 22:48:00,76.7,69.0,29.99,SE,135,4.3,4.3,77,0.00,,,0.00,WUHU216HW,2013-06-23 03:48:00,
2013-06-22 22:49:00,76.7,69.0,29.99,SE,135,4.3,4.3,77,0.00,,,0.00,WUHU216HW,2013-06-23 03:49:00,
2013-06-22 22:50:00,76.7,69.0,29.99,SE,135,3.1,4.3,77,0.00,,,0.00,WUHU216HW,2013-06-23 03:50:00,
2013-06-22 22:54:00,76.3,68.9,29.99,SE,135,3.8,4.3,78,0.00,,,0.00,WUHU216HW,2013-06-23 03:54:00,
2013-06-22 22:56:00,76.3,68.9,29.99,SE,135,4.0,4.3,78,0.00,,,0.00,WUHU216HW,2013-06-23 03:56:00,
2013-06-22 22:57:00,76.3,68.9,29.99,SE,135,4.7,4.7,78,0.00,,,0.00,WUHU216HW,2013-06-23 03:57:00,
2013-06-22 22:59:00,76.3,68.9,29.99,SE,135,4.3,4.7,78,0.00,,,0.00,WUHU216HW,2013-06-23 03:59:00,
2013-06-22 23:01:00,76.3,68.9,29.99,ESE,113,5.1,5.1,78,0.00,,,0.00,WUHU216HW,2013-06-23 04:01:00,
2013-06-22 23:02:00,76.1,68.8,29.99,SE,135,3.8,5.1,78,0.00,,,0.00,WUHU216HW,2013-06-23 04:02:00,
2013-06-22 23:05:00,76.1,68.8,29.99,SSE,158,4.3,5.1,78,0.00,,,0.00,WUHU216HW,2013-06-23 04:05:00,
2013-06-22 23:06:00,76.1,68.8,29.99,SE,135,3.4,5.1,78,0.00,,,0.00,WUHU216HW,2013-06-23 04:06:00,
2013-06-22 23:08:00,76.1,68.8,29.99,SE,135,3.8,5.1,78,0.00,,,0.00,WUHU216HW,2013-06-23 04:08:00,
2013-06-22 23:09:00,76.1,68.8,29.99,SE,135,3.1,4.3,78,0.00,,,0.00,WUHU216HW,2013-06-23 04:09:00,
2013-06-22 23:11:00,76.1,68.8,29.99,SE,135,2.5,4.3,78,0.00,,,0.00,WUHU216HW,2013-06-23 04:11:00,
2013-06-22 23:12:00,76.1,68.8,29.99,SE,135,4.0,4.3,78,0.00,,,0.00,WUHU216HW,2013-06-23 04:12:00,
2013-06-22 23:13:00,76.1,68.8,29.99,SE,135,2.5,4.3,78,0.00,,,0.00,WUHU216HW,2013-06-23 04:13:00,
2013-06-22 23:16:00,76.1,68.8,29.99,SE,135,2.2,4.0,78,0.00,,,0.00,WUHU216HW,2013-06-23 04:16:00,
2013-06-22 23:17:00,76.1,68.8,29.99,SE,135,3.4,4.0,78,0.00,,,0.00,WUHU216HW,2013-06-23 04:17:00,
2013-06-22 23:19:00,76.1,68.8,29.99,SE,135,3.4,4.0,78,0.00,,,0.00,WUHU216HW,2013-06-23 04:19:00,
2013-06-22 23:20:00,76.0,68.7,29.99,SE,135,2.9,4.0,78,0.00,,,0.00,WUHU216HW,2013-06-23 04:20:00,
2013-06-22 23:21:00,76.0,68.7,29.99,SE,135,3.4,4.0,78,0.00,,,0.00,WUHU216HW,2013-06-23 04:21:00,
2013-06-22 23:22:00,76.0,68.7,29.99,SE,135,4.0,4.0,78,0.00,,,0.00,WUHU216HW,2013-06-23 04:22:00,
2013-06-22 23:24:00,76.0,69.0,29.99,SE,135,3.4,4.0,79,0.00,,,0.00,WUHU216HW,2013-06-23 04:24:00,
2013-06-22 23:25:00,76.0,69.0,29.99,SE,135,4.0,4.0,79,0.00,,,0.00,WUHU216HW,2013-06-23 04:25:00,
2013-06-22 23:27:00,76.0,69.0,29.99,SE,135,4.0,4.0,79,0.00,,,0.00,WUHU216HW,2013-06-23 04:27:00,
2013-06-22 23:29:00,75.8,68.9,29.99,SE,135,2.5,4.0,79,0.00,,,0.00,WUHU216HW,2013-06-23 04:29:00,
2013-06-22 23:31:00,75.6,68.7,29.99,ESE,113,2.9,4.0,79,0.00,,,0.00,WUHU216HW,2013-06-23 04:31:00,
2013-06-22 23:32:00,75.6,68.7,29.99,ESE,113,2.9,4.0,79,0.00,,,0.00,WUHU216HW,2013-06-23 04:32:00,
2013-06-22 23:34:00,75.6,68.7,30.00,SE,135,2.9,4.0,79,0.00,,,0.00,WUHU216HW,2013-06-23 04:34:00,
2013-06-22 23:36:00,75.6,68.7,29.99,SE,135,3.1,3.1,79,0.00,,,0.00,WUHU216HW,2013-06-23 04:36:00,
2013-06-22 23:37:00,75.6,68.7,29.99,SE,135,3.1,3.1,79,0.00,,,0.00,WUHU216HW,2013-06-23 04:37:00,
2013-06-22 23:38:00,75.4,69.0,29.99,SE,135,2.5,3.8,80,0.00,,,0.00,WUHU216HW,2013-06-23 04:38:00,
2013-06-22 23:39:00,75.2,68.8,29.99,SE,135,2.7,3.8,80,0.00,,,0.00,WUHU216HW,2013-06-23 04:39:00,
2013-06-22 23:41:00,75.2,68.8,29.99,SE,135,2.5,3.8,80,0.00,,,0.00,WUHU216HW,2013-06-23 04:41:00,
2013-06-22 23:42:00,75.2,68.8,29.99,SE,135,2.5,3.8,80,0.00,,,0.00,WUHU216HW,2013-06-23 04:42:00,
2013-06-22 23:44:00,75.1,69.0,30.00,ESE,113,2.5,3.8,81,0.00,,,0.00,WUHU216HW,2013-06-23 04:44:00,
2013-06-22 23:47:00,74.9,68.8,30.00,ESE,113,2.7,3.4,81,0.00,,,0.00,WUHU216HW,2013-06-23 04:47:00,
2013-06-22 23:48:00,74.9,68.8,30.00,ESE,113,2.5,3.4,81,0.00,,,0.00,WUHU216HW,2013-06-23 04:48:00,
2013-06-22 23:50:00,74.7,68.6,30.00,ESE,113,3.4,3.4,81,0.00,,,0.00,WUHU216HW,2013-06-23 04:50:00,
2013-06-22 23:52:00,74.7,68.6,30.00,ESE,113,3.4,3.4,81,0.00,,,0.00,WUHU216HW,2013-06-23 04:52:00,
2013-06-22 23:54:00,74.7,68.6,30.00,SE,135,3.1,3.4,81,0.00,,,0.00,WUHU216HW,2013-06-23 04:54:00,
2013-06-22 23:55:00,74.7,68.6,30.00,SE,135,2.5,3.4,81,0.00,,,0.00,WUHU216HW,2013-06-23 04:55:00,
2013-06-22 23:56:00,74.7,68.6,30.00,SE,135,3.4,3.4,81,0.00,,,0.00,WUHU216HW,2013-06-23 04:56:00,
2013-06-22 23:57:00,74.7,68.6,30.00,SE,135,3.4,3.4,81,0.00,,,0.00,WUHU216HW,2013-06-23 04:57:00,
2013-06-22 23:58:00,74.7,68.6,30.00,ESE,113,3.8,3.8,81,0.00,,,0.00,WUHU216HW,2013-06-23 04:58:00,